KC5DAQ-22 Weather Reports


time (UTC)temp
C
wind
direction
speed
KPH
gust
KPH
rain 1hr
cm
rain 24hr
cm
rain mn
cm
humidity
%
barometer
mb
20260508231855 22 49 6.4 9.7 0.03 0.13 0.13 95 1007.7
20260508231755 22 65 6.4 9.7 0.03 0.13 0.13 95 1007.7
20260508231655 22 59 6.4 9.7 0.03 0.13 0.13 95 1007.7
20260508231556 22 68 6.4 9.7 0.03 0.13 0.13 95 1007.7
20260508231454 22 47 6.4 9.7 0.03 0.13 0.13 95 1007.7
20260508231355 22 59 6.4 9.7 0.03 0.13 0.13 96 1007.6
20260508231254 22 65 4.8 6.4 0.03 0.13 0.13 95 1007.7
20260508231154 22 51 4.8 6.4 0.03 0.13 0.13 96 1007.7
20260508231054 22 51 4.8 6.4 0.03 0.13 0.13 96 1007.6
20260508230954 22 51 4.8 6.4 0.03 0.13 0.13 96 1007.5
20260508230855 22 44 4.8 6.4 0.03 0.13 0.13 96 1007.5
20260508230755 22 44 4.8 8.0 0.03 0.13 0.13 96 1007.6
20260508230654 22 42 3.2 8.0 0.03 0.13 0.13 96 1007.6
20260508230555 22 42 3.2 9.7 0.03 0.13 0.13 96 1007.6
20260508230455 22 42 3.2 9.7 0.03 0.13 0.13 96 1007.5
20260508230355 22 42 3.2 9.7 0.03 0.13 0.13 96 1007.5
20260508230255 22 42 3.2 9.7 0.03 0.13 0.13 96 1007.6
20260508230154 22 41 3.2 9.7 0.03 0.13 0.13 96 1007.5
20260508230056 22 58 3.2 9.7 0.03 0.13 0.13 96 1007.5
20260508225955 22 63 4.8 9.7 0.03 0.10 0.13 96 1007.5
20260508225855 22 63 6.4 9.7 0.03 0.10 0.13 96 1007.4
20260508225755 22 65 6.4 11.3 0.03 0.10 0.13 96 1007.4
20260508225655 22 73 6.4 11.3 0.03 0.10 0.13 96 1007.4
20260508225554 22 68 8.0 11.3 0.03 0.10 0.13 96 1007.4
20260508225454 22 68 8.0 11.3 0.03 0.10 0.13 96 1007.4
20260508225355 22 68 8.0 11.3 0.03 0.10 0.13 96 1007.3
20260508225254 22 68 8.0 11.3 0.03 0.10 0.13 96 1007.3
20260508225153 22 97 9.7 11.3 0.03 0.10 0.13 96 1007.3
20260508225053 22 82 9.7 11.3 0.03 0.10 0.13 96 1007.3
20260508224954 22 85 8.0 11.3 0.03 0.10 0.13 96 1007.4
20260508224853 22 99 6.4 11.3 0.03 0.10 0.13 96 1007.3
20260508224753 22 71 4.8 8.0 0.03 0.10 0.13 96 1007.3
20260508224654 22 54 4.8 9.7 0.03 0.10 0.13 96 1007.4
20260508224553 22 59 6.4 9.7 0.03 0.10 0.13 96 1007.4
20260508224454 22 41 6.4 9.7 0.03 0.10 0.13 96 1007.4
20260508224353 22 35 4.8 9.7 0.03 0.10 0.13 96 1007.4
20260508224255 22 35 4.8 9.7 0.03 0.10 0.13 96 1007.5
20260508224154 22 62 4.8 9.7 0.03 0.10 0.13 96 1007.6
20260508224054 22 62 4.8 9.7 0.03 0.10 0.13 96 1007.5
20260508223953 22 56 3.2 9.7 0.03 0.10 0.13 96 1007.5
20260508223853 22 58 6.4 9.7 0.03 0.10 0.13 95 1007.5
20260508223753 22 58 6.4 9.7 0.03 0.10 0.13 96 1007.5
20260508223654 22 49 6.4 9.7 0.03 0.10 0.13 96 1007.4
20260508223554 22 42 6.4 9.7 0.03 0.10 0.13 95 1007.4
20260508223453 22 47 6.4 9.7 0.03 0.10 0.13 95 1007.5
20260508223353 22 51 6.4 9.7 0.03 0.10 0.13 95 1007.5
20260508223255 22 58 3.2 8.0 0.03 0.10 0.13 96 1007.5
20260508223153 22 55 3.2 6.4 0.03 0.10 0.10 96 1007.5
20260508223053 22 55 4.8 6.4 0.00 0.10 0.10 96 1007.5
20260508222954 22 55 4.8 6.4 0.00 0.10 0.10 96 1007.5
20260508222854 22 58 6.4 8.0 0.00 0.10 0.10 96 1007.5
20260508222753 22 63 6.4 8.0 0.00 0.10 0.10 95 1007.5
20260508222653 22 56 6.4 8.0 0.00 0.10 0.10 95 1007.5
20260508222555 22 56 6.4 8.0 0.00 0.10 0.10 95 1007.6
20260508222453 22 61 6.4 8.0 0.00 0.10 0.10 95 1007.5
20260508222353 22 59 4.8 8.0 0.00 0.10 0.10 95 1007.6
20260508222254 22 47 4.8 8.0 0.00 0.10 0.10 95 1007.6
20260508222154 22 47 4.8 8.0 0.00 0.10 0.10 95 1007.6
20260508222054 22 47 4.8 8.0 0.00 0.10 0.10 95 1007.6
20260508221954 22 47 4.8 8.0 0.00 0.10 0.10 95 1007.6
20260508221853 22 34 3.2 6.4 0.00 0.10 0.10 96 1007.7
20260508221755 22 34 3.2 6.4 0.00 0.10 0.10 96 1007.6
20260508221653 22 34 3.2 8.0 0.00 0.10 0.10 96 1007.6
20260508221555 22 34 3.2 8.0 0.00 0.10 0.10 95 1007.7
20260508221454 22 34 3.2 8.0 0.00 0.10 0.10 95 1007.7
20260508221354 22 34 4.8 8.0 0.00 0.10 0.10 95 1007.7
20260508221252 22 34 4.8 8.0 0.00 0.10 0.10 95 1007.6
20260508221154 22 32 4.8 8.0 0.00 0.10 0.10 95 1007.6
20260508221052 22 32 4.8 8.0 0.00 0.10 0.10 95 1007.6
20260508220952 22 42 4.8 8.0 0.00 0.10 0.10 95 1007.6
20260508220853 22 41 4.8 8.0 0.00 0.10 0.10 95 1007.7
20260508220754 22 42 4.8 8.0 0.00 0.10 0.10 95 1007.7
20260508220653 22 42 3.2 9.7 0.00 0.10 0.10 95 1007.7
20260508220552 22 42 3.2 9.7 0.00 0.10 0.10 96 1007.7
20260508220454 22 41 3.2 9.7 0.00 0.10 0.10 96 1007.7
20260508220353 22 41 3.2 9.7 0.00 0.10 0.10 95 1007.7
20260508220252 22 41 4.8 9.7 0.00 0.10 0.10 95 1007.7
20260508220153 22 41 4.8 9.7 0.00 0.10 0.10 95 1007.7
20260508220053 22 42 6.4 9.7 0.00 0.10 0.10 95 1007.7
20260508215952 22 34 6.4 9.7 0.00 0.10 0.10 95 1007.7
20260508215852 22 31 6.4 9.7 0.00 0.10 0.10 95 1007.6
20260508215754 22 49 6.4 9.7 0.00 0.10 0.10 95 1007.6
20260508215652 22 38 4.8 9.7 0.00 0.10 0.10 95 1007.6
20260508215553 22 52 4.8 9.7 0.00 0.10 0.10 95 1007.6
20260508215455 22 55 6.4 9.7 0.00 0.10 0.10 95 1007.6
20260508215353 22 54 4.8 9.7 0.00 0.10 0.10 95 1007.7
20260508215253 22 47 4.8 9.7 0.00 0.10 0.10 95 1007.7
20260508215152 22 47 4.8 9.7 0.00 0.10 0.10 95 1007.6
20260508215053 22 59 6.4 9.7 0.00 0.10 0.10 95 1007.7
20260508214953 22 52 4.8 9.7 0.00 0.10 0.10 95 1007.7
20260508214852 22 51 3.2 8.0 0.00 0.10 0.10 95 1007.7
20260508214754 22 51 3.2 8.0 0.00 0.10 0.10 95 1007.7
20260508214653 22 45 3.2 8.0 0.00 0.10 0.10 95 1007.7
20260508214552 22 45 4.8 8.0 0.00 0.10 0.10 95 1007.8
20260508214453 22 42 4.8 8.0 0.00 0.10 0.10 95 1007.9
20260508214354 22 59 6.4 8.0 0.00 0.10 0.10 95 1007.9
20260508214253 22 56 6.4 8.0 0.00 0.10 0.10 95 1007.9
20260508214152 22 62 4.8 8.0 0.00 0.10 0.10 95 1007.9
20260508214053 22 49 4.8 8.0 0.00 0.10 0.10 95 1007.9
20260508213952 22 48 6.4 8.0 0.00 0.10 0.10 95 1007.9
20260508213853 22 48 6.4 8.0 0.00 0.10 0.10 95 1008.0
20260508213753 22 47 4.8 8.0 0.00 0.10 0.10 95 1008.0
20260508213653 22 47 3.2 8.0 0.00 0.10 0.10 95 1007.9
20260508213552 22 47 4.8 8.0 0.00 0.10 0.10 95 1007.9
20260508213451 22 48 4.8 8.0 0.00 0.10 0.10 94 1008.0
20260508213353 22 48 6.4 8.0 0.00 0.10 0.10 94 1008.0
20260508213253 22 42 6.4 8.0 0.00 0.10 0.10 94 1008.0
20260508213151 22 39 6.4 8.0 0.00 0.10 0.10 94 1007.9
20260508213052 22 38 4.8 8.0 0.00 0.10 0.10 94 1008.0
20260508212952 22 47 4.8 8.0 0.00 0.10 0.10 94 1008.0
20260508212852 22 45 3.2 8.0 0.00 0.10 0.10 94 1008.0
20260508212752 22 44 4.8 8.0 0.00 0.10 0.10 94 1008.0
20260508212652 22 44 4.8 8.0 0.00 0.10 0.10 94 1008.0
20260508212554 22 42 4.8 8.0 0.00 0.10 0.10 94 1008.0
20260508212453 22 32 3.2 9.7 0.00 0.10 0.10 94 1007.9
20260508212352 22 63 3.2 9.7 0.00 0.10 0.10 94 1008.0
20260508212253 22 63 6.4 9.7 0.00 0.10 0.10 94 1008.0
20260508212152 22 62 4.8 9.7 0.00 0.10 0.10 94 1007.9
20260508212052 22 69 4.8 9.7 0.00 0.10 0.10 94 1008.0
20260508211953 22 73 4.8 9.7 0.00 0.10 0.10 94 1007.9
20260508211852 22 59 4.8 9.7 0.00 0.10 0.10 94 1007.9
20260508211753 22 56 6.4 9.7 0.00 0.10 0.10 94 1007.9
20260508211651 22 65 6.4 9.7 0.00 0.10 0.10 94 1007.9
20260508211551 22 73 6.4 9.7 0.00 0.10 0.10 94 1007.8
20260508211452 22 85 6.4 9.7 0.00 0.10 0.10 94 1007.8
20260508211353 22 79 6.4 9.7 0.00 0.10 0.10 94 1007.8
20260508211252 22 93 4.8 8.0 0.00 0.10 0.10 93 1007.8
20260508211152 22 52 4.8 8.0 0.00 0.10 0.10 93 1007.8
20260508211051 22 51 4.8 8.0 0.00 0.10 0.10 93 1007.9
20260508210952 22 54 4.8 8.0 0.00 0.10 0.10 93 1007.9
20260508210851 22 59 3.2 8.0 0.00 0.10 0.10 93 1008.0
20260508210752 22 59 3.2 8.0 0.00 0.10 0.10 93 1008.0
20260508210651 22 59 3.2 8.0 0.03 0.10 0.10 93 1008.0
20260508210553 22 61 4.8 8.0 0.03 0.10 0.10 93 1008.0
20260508210451 22 61 6.4 8.0 0.03 0.10 0.10 93 1008.0
20260508210352 22 54 4.8 6.4 0.03 0.10 0.10 93 1007.9
20260508210252 22 54 4.8 6.4 0.03 0.10 0.10 93 1007.9
20260508210152 22 63 3.2 6.4 0.03 0.10 0.10 93 1007.9
20260508210051 22 56 3.2 6.4 0.05 0.10 0.10 93 1007.9
20260508205951 22 87 3.2 6.4 0.05 0.05 0.10 93 1007.9
20260508205854 22 87 4.8 6.4 0.05 0.05 0.10 93 1007.9
20260508205752 22 87 3.2 6.4 0.05 0.05 0.10 93 1008.0
20260508205651 22 86 0.0 4.8 0.05 0.05 0.10 93 1008.2
20260508205553 22 86 1.6 4.8 0.05 0.05 0.10 93 1008.2
20260508205451 22 86 3.2 4.8 0.05 0.05 0.10 93 1008.2
20260508205351 22 86 1.6 3.2 0.05 0.05 0.10 93 1008.2
20260508205252 22 87 1.6 4.8 0.08 0.05 0.10 93 1008.1
20260508205153 22 87 1.6 4.8 0.08 0.05 0.10 93 1008.0
20260508205050 22 87 0.0 6.4 0.08 0.05 0.10 93 1008.1
20260508204950 22 87 0.0 6.4 0.08 0.05 0.10 93 1008.1
20260508204851 22 87 0.0 6.4 0.08 0.05 0.10 93 1008.2
20260508204752 22 87 0.0 6.4 0.08 0.05 0.10 93 1008.2
20260508204652 22 87 0.0 6.4 0.08 0.05 0.10 93 1008.2
20260508204551 22 87 1.6 6.4 0.08 0.05 0.10 94 1008.2
20260508204452 22 87 1.6 6.4 0.08 0.05 0.10 94 1008.2
20260508204352 22 87 1.6 6.4 0.08 0.05 0.10 94 1008.2
20260508204251 22 87 3.2 6.4 0.10 0.05 0.10 93 1008.0
20260508204152 22 87 4.8 9.7 0.10 0.05 0.10 94 1008.0
20260508204051 22 89 3.2 11.3 0.10 0.05 0.10 94 1008.0
20260508203951 22 102 3.2 11.3 0.10 0.05 0.10 94 1007.9
20260508203851 22 103 3.2 11.3 0.10 0.05 0.10 94 1008.0
20260508203752 22 117 3.2 11.3 0.10 0.05 0.10 94 1008.1
20260508203651 22 73 3.2 11.3 0.10 0.05 0.10 94 1008.1
20260508203551 22 73 3.2 11.3 0.10 0.05 0.10 94 1008.0
20260508203451 22 48 3.2 11.3 0.10 0.05 0.10 94 1007.9
20260508203351 22 44 4.8 11.3 0.10 0.05 0.10 94 1007.8
20260508203250 22 76 6.4 11.3 0.10 0.05 0.10 94 1007.8
20260508203150 22 93 6.4 11.3 0.10 0.05 0.10 94 1007.8
20260508203051 22 94 6.4 11.3 0.10 0.05 0.10 94 1007.7
20260508202950 22 92 6.4 11.3 0.10 0.05 0.10 94 1007.9
20260508202850 22 63 4.8 11.3 0.10 0.05 0.10 95 1007.9
20260508202751 22 55 8.0 11.3 0.10 0.05 0.10 95 1007.9
20260508202651 22 42 8.0 11.3 0.10 0.05 0.10 95 1007.9
20260508202551 22 71 8.0 11.3 0.10 0.05 0.10 95 1007.9
20260508202451 22 71 8.0 11.3 0.10 0.05 0.10 94 1007.9
20260508202350 22 52 6.4 11.3 0.10 0.05 0.10 94 1007.9
20260508202252 22 62 6.4 11.3 0.10 0.05 0.10 94 1007.9
20260508202150 22 72 8.0 8.0 0.10 0.05 0.10 94 1008.0
20260508202052 22 62 6.4 8.0 0.10 0.05 0.10 94 1008.1
20260508201950 22 61 6.4 8.0 0.10 0.05 0.10 94 1008.2
20260508201851 22 55 4.8 8.0 0.10 0.05 0.10 94 1008.3
20260508201752 22 54 4.8 8.0 0.10 0.05 0.10 94 1008.3
20260508201652 22 69 3.2 9.7 0.10 0.05 0.10 95 1008.4
20260508201551 22 80 3.2 9.7 0.10 0.05 0.10 94 1008.5
20260508201451 22 83 3.2 9.7 0.10 0.05 0.10 94 1008.5
20260508201351 22 118 3.2 9.7 0.10 0.05 0.10 94 1008.5
20260508201250 22 120 4.8 11.3 0.10 0.05 0.10 94 1008.5
20260508201151 22 85 3.2 11.3 0.10 0.05 0.10 95 1008.5
20260508201051 22 68 3.2 11.3 0.10 0.05 0.10 95 1008.5
20260508200950 22 87 3.2 11.3 0.10 0.05 0.10 95 1008.4
20260508200849 22 134 6.4 11.3 0.10 0.05 0.10 94 1008.4
20260508200751 22 102 6.4 11.3 0.10 0.05 0.10 94 1008.4
20260508200651 22 97 6.4 11.3 0.08 0.05 0.08 94 1008.4
20260508200550 22 113 8.0 11.3 0.08 0.05 0.08 94 1008.3
20260508200450 22 102 9.7 11.3 0.08 0.05 0.08 94 1008.3
20260508200351 22 111 9.7 11.3 0.08 0.05 0.08 94 1008.3
20260508200251 22 123 8.0 11.3 0.08 0.05 0.08 94 1008.3
20260508200152 22 124 6.4 9.7 0.08 0.05 0.05 94 1008.4
20260508200051 22 90 4.8 6.4 0.05 0.05 0.05 94 1008.4
20260508195950 22 90 3.2 6.4 0.05 0.00 0.05 94 1008.5
20260508195850 22 111 3.2 6.4 0.05 0.00 0.05 93 1008.6
20260508195749 22 152 3.2 6.4 0.05 0.00 0.05 93 1008.6
20260508195651 22 102 3.2 6.4 0.05 0.00 0.05 93 1008.6
20260508195549 22 111 3.2 6.4 0.05 0.00 0.05 93 1008.5
20260508195450 22 120 3.2 6.4 0.05 0.00 0.05 93 1008.6
20260508195350 22 99 3.2 6.4 0.05 0.00 0.03 93 1008.6
20260508195250 22 103 4.8 6.4 0.03 0.00 0.03 92 1008.7
20260508195149 22 164 4.8 6.4 0.03 0.00 0.03 92 1008.8
20260508195049 22 116 3.2 6.4 0.03 0.00 0.03 92 1008.7
20260508194950 22 127 1.6 8.0 0.03 0.00 0.03 92 1008.7
20260508194850 22 89 0.0 8.0 0.03 0.00 0.03 92 1008.9
20260508194750 22 89 0.0 8.0 0.03 0.00 0.03 92 1008.9
20260508194649 22 89 0.0 8.0 0.03 0.00 0.03 92 1008.9
20260508194549 22 89 1.6 8.0 0.03 0.00 0.03 92 1009.0
20260508194450 22 89 3.2 8.0 0.03 0.00 0.03 91 1009.0
20260508194349 22 89 3.2 8.0 0.03 0.00 0.00 91 1009.0
20260508194250 22 87 4.8 8.0 0.00 0.00 0.00 91 1008.9
20260508194149 22 85 6.4 8.0 0.00 0.00 0.00 91 1008.9
20260508194050 22 114 6.4 8.0 0.00 0.00 0.00 91 1008.9
20260508193950 22 94 6.4 8.0 0.00 0.00 0.00 91 1009.0
20260508193849 22 87 6.4 8.0 0.00 0.00 0.00 90 1009.0
20260508193749 22 86 6.4 8.0 0.00 0.00 0.00 90 1009.0
20260508193649 22 104 6.4 8.0 0.00 0.00 0.00 89 1009.0
20260508193551 22 85 6.4 8.0 0.00 0.00 0.00 90 1009.0
20260508193449 22 83 4.8 8.0 0.00 0.00 0.00 90 1009.1
20260508193351 22 90 4.8 8.0 0.00 0.00 0.00 90 1009.0
20260508193250 22 83 4.8 8.0 0.00 0.00 0.00 89 1009.0
20260508193150 22 83 4.8 8.0 0.00 0.00 0.00 89 1009.1
20260508193049 22 63 4.8 8.0 0.00 0.00 0.00 89 1009.1
20260508192949 22 63 6.4 8.0 0.00 0.00 0.00 89 1009.0
20260508192850 22 62 4.8 14.5 0.00 0.00 0.00 89 1009.1
20260508192748 22 79 3.2 14.5 0.00 0.00 0.00 90 1009.1
20260508192649 22 89 3.2 14.5 0.00 0.00 0.00 89 1009.1
20260508192551 22 89 4.8 14.5 0.00 0.00 0.00 89 1009.1
20260508192449 22 89 3.2 14.5 0.00 0.00 0.00 89 1009.1
20260508192350 22 89 3.2 14.5 0.00 0.00 0.00 89 1009.0
20260508192249 22 111 4.8 14.5 0.00 0.00 0.00 89 1009.0
20260508192151 22 111 4.8 14.5 0.00 0.00 0.00 89 1009.0
20260508192050 22 118 8.0 14.5 0.00 0.00 0.00 89 1009.1
20260508191949 22 102 9.7 14.5 0.00 0.00 0.00 88 1009.1
20260508191849 22 99 8.0 14.5 0.00 0.00 0.00 89 1009.0
20260508191748 22 76 8.0 14.5 0.00 0.00 0.00 88 1009.1
20260508191649 22 82 8.0 14.5 0.00 0.00 0.00 88 1008.9
20260508191549 22 85 8.0 14.5 0.00 0.00 0.00 88 1009.0
20260508191450 22 79 8.0 16.1 0.00 0.00 0.00 88 1008.9
20260508191348 22 80 8.0 16.1 0.00 0.00 0.00 88 1008.9
20260508191249 22 83 8.0 19.3 0.00 0.00 0.00 88 1009.0
20260508191148 22 82 8.0 19.3 0.00 0.00 0.00 88 1009.0
20260508191048 22 86 8.0 19.3 0.00 0.00 0.00 88 1008.9
20260508190948 22 96 6.4 19.3 0.00 0.00 0.00 88 1009.0
20260508190848 22 106 6.4 19.3 0.00 0.00 0.00 88 1008.9
20260508190750 22 85 6.4 19.3 0.00 0.00 0.00 88 1009.0
20260508190646 22 86 9.7 19.3 0.00 0.00 0.00 88 1009.0
20260508190547 22 103 11.3 19.3 0.00 0.00 0.00 88 1009.0
20260508190443 22 86 12.9 20.9 0.00 0.00 0.00 88 1009.0
20260508190343 22 109 9.7 20.9 0.00 0.00 0.00 88 1008.9
20260508190241 22 118 6.4 20.9 0.00 0.00 0.00 88 1009.0
20260508190140 22 87 6.4 20.9 0.00 0.00 0.00 89 1009.0
20260508190039 22 104 9.7 20.9 0.00 0.00 0.00 88 1009.1
20260508185938 22 109 11.3 20.9 0.00 0.00 0.00 88 1009.0
20260508185838 22 111 12.9 20.9 0.00 0.00 0.00 88 1009.0
20260508185735 22 82 12.9 20.9 0.00 0.00 0.00 88 1009.0
20260508185634 22 127 12.9 20.9 0.00 0.00 0.00 88 1008.9
20260508185533 22 123 12.9 20.9 0.00 0.00 0.00 88 1008.9
20260508185430 22 125 12.9 19.3 0.00 0.00 0.00 88 1008.8
20260508185330 22 107 11.3 19.3 0.00 0.00 0.00 88 1008.9
20260508185227 22 103 9.7 19.3 0.00 0.00 0.00 89 1008.8
20260508185127 22 111 11.3 19.3 0.00 0.00 0.00 89 1008.9
20260508185026 22 114 14.5 19.3 0.00 0.00 0.00 88 1008.9
20260508184922 22 104 12.9 19.3 0.00 0.00 0.00 89 1008.9
20260508184820 22 111 11.3 19.3 0.00 0.00 0.00 89 1009.0
20260508184719 22 111 11.3 19.3 0.00 0.00 0.00 89 1008.9
20260508184618 22 125 12.9 19.3 0.00 0.00 0.00 89 1008.9
20260508184516 22 124 14.5 19.3 0.00 0.00 0.00 89 1008.9
20260508184415 22 113 12.9 17.7 0.00 0.00 0.00 89 1008.9
20260508184313 22 109 9.7 17.7 0.00 0.00 0.00 89 1008.9
20260508184212 22 94 9.7 17.7 0.00 0.00 0.00 89 1009.0
20260508184111 22 111 11.3 17.7 0.00 0.00 0.00 89 1008.9
20260508184010 22 102 11.3 17.7 0.00 0.00 0.00 89 1009.0
20260508183908 22 111 9.7 16.1 0.00 0.00 0.00 89 1009.0
20260508183805 22 124 11.3 16.1 0.00 0.00 0.00 89 1008.9
20260508183703 22 97 11.3 16.1 0.00 0.00 0.00 89 1008.9
20260508183603 22 128 9.7 16.1 0.00 0.00 0.00 89 1009.0
20260508183503 22 79 11.3 14.5 0.00 0.00 0.00 89 1009.0
20260508183402 22 82 11.3 14.5 0.00 0.00 0.00 89 1009.0
20260508183303 22 89 9.7 14.5 0.00 0.00 0.00 89 1009.0
20260508183203 22 87 8.0 11.3 0.00 0.00 0.00 89 1009.1
20260508183103 22 100 8.0 11.3 0.00 0.00 0.00 89 1009.2
20260508183003 22 96 8.0 9.7 0.00 0.00 0.00 89 1009.2
20260508182904 22 86 8.0 9.7 0.00 0.00 0.00 89 1009.3
20260508182803 22 93 8.0 9.7 0.00 0.00 0.00 89 1009.4
20260508182703 22 78 8.0 9.7 0.00 0.00 0.00 89 1009.3
20260508182602 22 94 6.4 9.7 0.00 0.00 0.00 89 1009.3
20260508182502 22 96 6.4 9.7 0.00 0.00 0.00 89 1009.3
20260508182402 22 104 6.4 9.7 0.00 0.00 0.00 89 1009.3
20260508182306 22 90 6.4 9.7 0.00 0.00 0.00 89 1009.4
20260508182203 22 92 8.0 9.7 0.00 0.00 0.00 89 1009.4
20260508182102 22 86 6.4 9.7 0.00 0.00 0.00 89 1009.5
20260508182003 22 80 6.4 9.7 0.00 0.00 0.00 89 1009.4
20260508181903 22 96 4.8 9.7 0.00 0.00 0.00 89 1009.5
20260508181803 22 71 4.8 9.7 0.00 0.00 0.00 89 1009.5
20260508181702 22 30 4.8 9.7 0.00 0.00 0.00 89 1009.6
20260508181603 22 72 8.0 11.3 0.00 0.00 0.00 89 1009.6
20260508181504 21 96 6.4 11.3 0.00 0.00 0.00 89 1009.6
20260508181402 22 82 6.4 11.3 0.00 0.00 0.00 89 1009.7
20260508181301 22 90 6.4 11.3 0.00 0.00 0.00 89 1009.7
20260508181203 22 72 6.4 11.3 0.00 0.00 0.00 89 1009.7
20260508181103 22 66 6.4 11.3 0.00 0.00 0.00 89 1009.8
20260508181002 22 75 6.4 11.3 0.00 0.00 0.00 89 1009.7
20260508180903 22 51 4.8 11.3 0.00 0.00 0.00 89 1009.7
20260508180802 22 55 8.0 11.3 0.00 0.00 0.00 89 1009.7
20260508180702 22 55 8.0 14.5 0.00 0.00 0.00 89 1009.7
20260508180603 22 32 6.4 14.5 0.00 0.00 0.00 90 1009.7
20260508180502 22 52 4.8 14.5 0.00 0.00 0.00 90 1009.8
20260508180402 22 69 4.8 14.5 0.00 0.00 0.00 90 1009.7
20260508180302 22 73 6.4 14.5 0.00 0.00 0.00 90 1009.7
20260508180204 22 65 6.4 14.5 0.00 0.00 0.00 90 1009.7
20260508180003 21 90 8.0 14.5 0.00 0.00 0.00 90 1009.7
20260508175904 21 92 9.7 14.5 0.00 0.00 0.00 90 1009.7
20260508175802 21 90 9.7 14.5 0.00 0.00 0.00 90 1009.7
20260508175702 21 82 9.7 14.5 0.00 0.00 0.00 90 1009.7
20260508175603 21 109 9.7 14.5 0.00 0.00 0.00 90 1009.7
20260508175504 21 94 8.0 9.7 0.00 0.00 0.00 90 1009.8
20260508175402 21 78 6.4 11.3 0.00 0.00 0.00 90 1009.8
20260508175305 21 44 6.4 11.3 0.00 0.00 0.00 90 1009.8
20260508175203 21 49 8.0 11.3 0.00 0.00 0.00 90 1009.9
20260508175102 21 69 6.4 11.3 0.00 0.00 0.00 89 1009.9
20260508175004 21 62 6.4 11.3 0.00 0.00 0.00 89 1010.0
20260508174903 21 87 4.8 11.3 0.00 0.00 0.00 89 1010.1
20260508174803 21 83 4.8 11.3 0.00 0.00 0.00 89 1010.2
20260508174703 21 66 6.4 11.3 0.00 0.00 0.00 89 1010.1
20260508174602 21 114 9.7 11.3 0.00 0.00 0.00 89 1010.2
20260508174504 21 118 8.0 11.3 0.00 0.00 0.00 89 1010.1
20260508174402 21 120 8.0 11.3 0.00 0.00 0.00 89 1010.1
20260508174303 21 116 8.0 9.7 0.00 0.00 0.00 89 1010.1
20260508174203 21 83 8.0 9.7 0.00 0.00 0.00 89 1010.1
20260508174103 21 99 6.4 9.7 0.00 0.00 0.00 89 1010.0
20260508174001 21 83 4.8 14.5 0.00 0.00 0.00 89 1010.1
20260508173902 22 48 3.2 14.5 0.00 0.00 0.00 88 1010.0
20260508173802 22 41 3.2 14.5 0.00 0.00 0.00 89 1010.1
20260508173701 22 41 3.2 14.5 0.00 0.00 0.00 89 1010.1
20260508173602 22 39 1.6 14.5 0.00 0.00 0.00 89 1010.1
20260508173504 22 39 3.2 14.5 0.00 0.00 0.00 89 1010.1
20260508173402 22 42 3.2 14.5 0.00 0.00 0.00 89 1010.0
20260508173302 22 42 6.4 14.5 0.00 0.00 0.00 88 1010.0
20260508173204 22 42 8.0 14.5 0.00 0.00 0.00 88 1010.0
20260508173103 22 58 8.0 14.5 0.00 0.00 0.00 88 1010.0
20260508173003 22 72 8.0 11.3 0.00 0.00 0.00 87 1010.0
20260508172903 22 79 4.8 9.7 0.00 0.00 0.00 88 1010.0
20260508172804 22 79 4.8 11.3 0.00 0.00 0.00 88 1010.1
20260508172703 22 79 4.8 11.3 0.00 0.00 0.00 88 1010.1
20260508172603 22 79 4.8 16.1 0.00 0.00 0.00 88 1010.1
20260508172503 22 79 3.2 16.1 0.00 0.00 0.00 88 1010.1
20260508172402 22 76 4.8 16.1 0.00 0.00 0.00 88 1010.1
20260508172306 21 93 6.4 16.1 0.00 0.00 0.00 88 1010.1
20260508172202 21 128 6.4 16.1 0.00 0.00 0.00 87 1010.1
20260508172103 21 83 6.4 16.1 0.00 0.00 0.00 87 1010.2
20260508172002 21 80 8.0 16.1 0.00 0.00 0.00 87 1010.1
20260508171902 21 104 9.7 16.1 0.00 0.00 0.00 87 1010.1
20260508171803 21 109 11.3 16.1 0.00 0.00 0.00 87 1010.1
20260508171702 22 93 11.3 16.1 0.00 0.00 0.00 87 1010.2
20260508171603 22 104 11.3 16.1 0.00 0.00 0.00 87 1010.2
20260508171502 22 87 11.3 16.1 0.00 0.00 0.00 87 1010.1
20260508171402 22 93 9.7 14.5 0.00 0.00 0.00 87 1010.2
20260508171303 22 92 9.7 14.5 0.00 0.00 0.00 87 1010.2
20260508171202 22 90 9.7 14.5 0.00 0.00 0.00 86 1010.2
20260508171103 22 104 8.0 14.5 0.00 0.00 0.00 86 1010.2
20260508171002 22 104 8.0 14.5 0.00 0.00 0.00 87 1010.1
20260508170902 22 73 8.0 16.1 0.00 0.00 0.00 87 1010.1
20260508170803 22 82 9.7 16.1 0.00 0.00 0.00 87 1010.1
20260508170702 22 76 9.7 16.1 0.00 0.00 0.00 87 1010.1
20260508170603 21 58 8.0 16.1 0.00 0.00 0.00 87 1010.1
20260508170500 21 120 8.0 16.1 0.00 0.00 0.00 87 1010.1
20260508170358 21 89 8.0 16.1 0.00 0.00 0.00 87 1010.1
20260508170253 21 96 8.0 16.1 0.00 0.00 0.00 87 1010.3
20260508170145 21 79 9.7 16.1 0.00 0.00 0.00 87 1010.2
20260508170046 21 82 11.3 16.1 0.00 0.00 0.00 87 1010.2
20260508165946 21 100 9.7 16.1 0.00 0.00 0.00 87 1010.2
20260508165846 21 120 8.0 16.1 0.00 0.00 0.00 88 1010.1
20260508165746 21 117 9.7 17.7 0.00 0.00 0.00 88 1010.2
20260508165645 21 73 9.7 19.3 0.00 0.00 0.00 88 1010.2
20260508165546 21 45 8.0 19.3 0.00 0.00 0.00 88 1010.2
20260508165445 21 51 8.0 19.3 0.00 0.00 0.00 88 1010.2
20260508165346 21 79 8.0 19.3 0.00 0.00 0.00 88 1010.3
20260508165247 21 52 6.4 19.3 0.00 0.00 0.00 88 1010.3
20260508165146 21 97 6.4 19.3 0.00 0.00 0.00 88 1010.3
20260508165046 21 89 8.0 19.3 0.00 0.00 0.00 88 1010.4
20260508164946 21 63 11.3 19.3 0.00 0.00 0.00 88 1010.3
20260508164845 21 75 14.5 19.3 0.00 0.00 0.00 88 1010.4
20260508164745 21 86 14.5 19.3 0.00 0.00 0.00 88 1010.4
20260508164645 21 97 11.3 20.9 0.00 0.00 0.00 88 1010.4
20260508164548 21 82 9.7 20.9 0.00 0.00 0.00 88 1010.5
20260508164445 21 86 9.7 20.9 0.00 0.00 0.00 87 1010.6
20260508164347 21 93 12.9 20.9 0.00 0.00 0.00 87 1010.6
20260508164246 21 85 14.5 20.9 0.00 0.00 0.00 88 1010.6
20260508164145 21 109 12.9 20.9 0.00 0.00 0.00 88 1010.5
20260508164047 21 76 12.9 20.9 0.00 0.00 0.00 88 1010.5
20260508163945 21 71 12.9 20.9 0.00 0.00 0.00 88 1010.5
20260508163847 21 72 12.9 20.9 0.00 0.00 0.00 88 1010.5
20260508163747 21 96 11.3 20.9 0.00 0.00 0.00 88 1010.4
20260508163646 21 104 9.7 19.3 0.00 0.00 0.00 88 1010.4
20260508163546 21 71 9.7 19.3 0.00 0.00 0.00 89 1010.4
20260508163445 21 78 9.7 19.3 0.00 0.00 0.00 89 1010.5
20260508163345 21 59 8.0 19.3 0.00 0.00 0.00 89 1010.5
20260508163245 21 39 11.3 19.3 0.00 0.00 0.00 89 1010.5
20260508163146 20 102 11.3 19.3 0.00 0.00 0.00 89 1010.6
20260508163045 20 106 9.7 19.3 0.00 0.00 0.00 89 1010.6
20260508162945 20 65 9.7 17.7 0.00 0.00 0.00 89 1010.6
20260508162845 20 73 9.7 17.7 0.00 0.00 0.00 89 1010.7
20260508162744 20 80 11.3 17.7 0.00 0.00 0.00 90 1010.7
20260508162645 20 62 9.7 14.5 0.00 0.00 0.00 90 1010.8
20260508162547 20 52 8.0 11.3 0.00 0.00 0.00 90 1010.8
20260508162446 20 69 8.0 11.3 0.00 0.00 0.00 90 1010.9
20260508162345 20 55 8.0 9.7 0.00 0.00 0.00 90 1010.9
20260508162245 20 48 8.0 9.7 0.00 0.00 0.00 90 1011.0
20260508162146 20 90 6.4 11.3 0.00 0.00 0.00 90 1011.1
20260508162046 20 73 6.4 14.5 0.00 0.00 0.00 90 1011.1
20260508161944 20 86 8.0 14.5 0.00 0.00 0.00 90 1011.1
20260508161844 20 113 8.0 14.5 0.00 0.00 0.00 90 1011.1
20260508161744 20 55 8.0 14.5 0.00 0.00 0.00 90 1011.1
20260508161646 20 80 8.0 14.5 0.00 0.00 0.00 90 1011.1
20260508161545 20 80 8.0 14.5 0.00 0.00 0.00 90 1011.1
20260508161445 20 80 8.0 14.5 0.00 0.00 0.00 90 1011.2
20260508161346 20 87 9.7 14.5 0.00 0.00 0.00 90 1011.2
20260508161245 20 111 9.7 14.5 0.00 0.00 0.00 90 1011.3
20260508161145 20 114 9.7 14.5 0.00 0.00 0.00 90 1011.2
20260508161045 20 86 11.3 14.5 0.00 0.00 0.00 90 1011.1
20260508160944 20 97 8.0 14.5 0.00 0.00 0.00 90 1011.2
20260508160844 20 78 4.8 11.3 0.00 0.00 0.00 90 1011.1
20260508160745 20 66 6.4 11.3 0.00 0.00 0.00 90 1011.1
20260508160645 20 65 6.4 11.3 0.00 0.00 0.00 90 1011.3
20260508160544 20 68 6.4 11.3 0.00 0.00 0.00 90 1011.3
20260508160445 20 63 8.0 11.3 0.00 0.00 0.00 90 1011.3
20260508160344 20 80 8.0 11.3 0.00 0.00 0.00 90 1011.4
20260508160245 20 55 8.0 11.3 0.00 0.00 0.00 89 1011.4
20260508160144 20 79 8.0 11.3 0.00 0.00 0.00 89 1011.4
20260508160046 20 80 6.4 11.3 0.00 0.00 0.00 90 1011.4
20260508155944 20 94 6.4 11.3 0.00 0.00 0.00 90 1011.3
20260508155844 20 86 4.8 17.7 0.00 0.00 0.00 90 1011.3
20260508155645 20 82 4.8 17.7 0.00 0.00 0.00 90 1011.2
20260508155544 20 62 6.4 17.7 0.00 0.00 0.00 90 1011.2
20260508155444 20 63 6.4 17.7 0.00 0.00 0.00 91 1011.2
20260508155346 20 51 3.2 17.7 0.00 0.00 0.00 91 1011.3
20260508155244 20 14 4.8 17.7 0.00 0.00 0.00 91 1011.2
20260508155145 20 45 6.4 17.7 0.00 0.00 0.00 91 1011.1
20260508155045 20 54 9.7 17.7 0.00 0.00 0.00 91 1011.1
20260508154945 20 32 11.3 17.7 0.00 0.00 0.00 91 1011.1
20260508154844 20 37 9.7 16.1 0.00 0.00 0.00 91 1011.1
20260508154744 20 37 11.3 16.1 0.00 0.00 0.00 91 1011.2
20260508154646 20 51 9.7 16.1 0.00 0.00 0.00 91 1011.2
20260508154543 20 30 8.0 14.5 0.00 0.00 0.00 91 1011.2
20260508154444 20 63 9.7 14.5 0.00 0.00 0.00 91 1011.2
20260508154346 20 35 11.3 14.5 0.00 0.00 0.00 90 1011.2
20260508154245 20 48 9.7 16.1 0.00 0.00 0.00 90 1011.3
20260508154143 20 48 6.4 16.1 0.00 0.00 0.00 90 1011.4
20260508154044 20 39 6.4 17.7 0.00 0.00 0.00 91 1011.6
20260508153944 20 39 6.4 19.3 0.00 0.00 0.00 90 1011.5
20260508153845 20 44 6.4 19.3 0.00 0.00 0.00 91 1011.5
20260508153743 20 28 6.4 19.3 0.00 0.00 0.00 91 1011.4
20260508153646 20 20 6.4 19.3 0.00 0.00 0.00 90 1011.4
20260508153545 20 32 9.7 19.3 0.00 0.00 0.00 90 1011.4
20260508153445 20 45 9.7 19.3 0.00 0.00 0.00 90 1011.4
20260508153344 20 47 9.7 19.3 0.00 0.00 0.00 90 1011.4
20260508153244 20 0 11.3 19.3 0.00 0.00 0.00 90 1011.3
20260508153143 20 31 12.9 19.3 0.00 0.00 0.00 90 1011.3
20260508153043 20 27 14.5 19.3 0.00 0.00 0.00 90 1011.3
20260508152943 20 30 11.3 19.3 0.00 0.00 0.00 90 1011.4
20260508152844 20 16 11.3 19.3 0.00 0.00 0.00 90 1011.3
20260508152743 20 20 11.3 19.3 0.00 0.00 0.00 90 1011.3
20260508152643 20 56 12.9 19.3 0.00 0.00 0.00 90 1011.3
20260508152545 20 0 12.9 19.3 0.00 0.00 0.00 90 1011.2
20260508152445 20 35 14.5 19.3 0.00 0.00 0.00 90 1011.3
20260508152344 20 49 14.5 19.3 0.00 0.00 0.00 90 1011.3
20260508152245 20 14 11.3 19.3 0.00 0.00 0.00 90 1011.3
20260508152144 20 45 6.4 19.3 0.00 0.00 0.00 90 1011.4
20260508152044 20 18 8.0 19.3 0.00 0.00 0.00 90 1011.4
20260508151943 20 31 11.3 19.3 0.00 0.00 0.00 90 1011.5
20260508151845 20 18 12.9 19.3 0.00 0.00 0.00 90 1011.4
20260508151743 20 32 12.9 19.3 0.00 0.00 0.00 90 1011.3
20260508151643 20 39 9.7 20.9 0.00 0.00 0.00 90 1011.4
20260508151544 20 20 8.0 20.9 0.00 0.00 0.00 90 1011.4
20260508151444 20 4 8.0 20.9 0.00 0.00 0.00 90 1011.4
20260508151343 20 319 11.3 20.9 0.00 0.00 0.00 89 1011.4
20260508151243 20 31 11.3 20.9 0.00 0.00 0.00 89 1011.4
20260508151144 20 30 9.7 20.9 0.00 0.00 0.00 89 1011.5
20260508151043 20 41 12.9 20.9 0.00 0.00 0.00 89 1011.4
20260508150943 20 47 12.9 20.9 0.00 0.00 0.00 89 1011.5
20260508150845 20 44 14.5 20.9 0.00 0.00 0.00 89 1011.4
20260508150743 20 55 14.5 20.9 0.00 0.00 0.00 89 1011.3
20260508150644 20 55 12.9 19.3 0.00 0.00 0.00 89 1011.3
20260508150543 20 27 17.7 19.3 0.00 0.00 0.00 89 1011.2
20260508150445 20 35 11.3 19.3 0.00 0.00 0.00 89 1011.2
20260508150344 20 35 11.3 24.1 0.00 0.00 0.00 89 1011.2
20260508150245 20 35 11.3 24.1 0.00 0.00 0.00 89 1011.3
20260508150135 20 37 9.7 24.1 0.00 0.00 0.00 89 1011.3
20260508150034 20 44 11.3 24.1 0.00 0.00 0.00 89 1011.3
20260508145932 20 39 11.3 24.1 0.00 0.00 0.00 89 1011.3
20260508145833 20 23 14.5 24.1 0.00 0.00 0.00 89 1011.3
20260508145733 20 32 14.5 24.1 0.00 0.00 0.00 89 1011.3
20260508145632 20 27 12.9 24.1 0.00 0.00 0.00 89 1011.4
20260508145532 20 44 12.9 24.1 0.00 0.00 0.00 89 1011.4
20260508145419 20 52 11.3 24.1 0.00 0.00 0.00 89 1011.4
20260508145316 20 18 9.7 17.7 0.00 0.00 0.00 89 1011.4
20260508145216 20 61 11.3 17.7 0.00 0.00 0.00 89 1011.4
20260508145113 20 34 11.3 17.7 0.00 0.00 0.00 89 1011.4
20260508145012 20 17 9.7 17.7 0.00 0.00 0.00 89 1011.3
20260508144911 20 54 9.7 17.7 0.00 0.00 0.00 89 1011.3
20260508144808 20 23 9.7 17.7 0.00 0.00 0.00 89 1011.5
20260508144708 20 35 9.7 17.7 0.00 0.00 0.00 89 1011.5
20260508144605 20 48 9.7 19.3 0.00 0.00 0.00 89 1011.6
20260508144504 20 24 11.3 19.3 0.00 0.00 0.00 89 1011.6
20260508144404 20 37 9.7 19.3 0.00 0.00 0.00 89 1011.6
20260508144303 20 23 9.7 19.3 0.00 0.00 0.00 89 1011.6
20260508144202 20 23 11.3 19.3 0.00 0.00 0.00 89 1011.6
20260508144102 20 54 12.9 19.3 0.00 0.00 0.00 88 1011.5
20260508144003 20 56 11.3 19.3 0.00 0.00 0.00 88 1011.6
20260508143901 20 30 11.3 20.9 0.00 0.00 0.00 88 1011.7
20260508143802 20 31 12.9 20.9 0.00 0.00 0.00 88 1011.7
20260508143704 20 61 14.5 20.9 0.00 0.00 0.00 88 1011.8
20260508143602 20 58 14.5 20.9 0.00 0.00 0.00 88 1011.9
20260508143504 20 31 12.9 20.9 0.00 0.00 0.00 88 1011.9
20260508143404 20 39 9.7 20.9 0.00 0.00 0.00 88 1011.9
20260508143303 20 25 11.3 20.9 0.00 0.00 0.00 88 1011.9
20260508143203 20 34 12.9 20.9 0.00 0.00 0.00 88 1011.9
20260508143102 20 37 12.9 20.9 0.00 0.00 0.00 88 1011.9
20260508143003 20 21 11.3 20.9 0.00 0.00 0.00 88 1011.9
20260508142904 20 18 11.3 19.3 0.00 0.00 0.00 88 1011.9
20260508142803 20 41 9.7 19.3 0.00 0.00 0.00 88 1011.9
20260508142702 20 23 9.7 19.3 0.00 0.00 0.00 87 1011.9
20260508142603 20 25 11.3 19.3 0.00 0.00 0.00 87 1011.9
20260508142504 20 38 12.9 19.3 0.00 0.00 0.00 87 1011.8
20260508142403 20 34 12.9 19.3 0.00 0.00 0.00 87 1011.8
20260508142306 20 32 11.3 17.7 0.00 0.00 0.00 87 1011.8
20260508142203 20 14 9.7 17.7 0.00 0.00 0.00 87 1011.8
20260508142103 20 32 8.0 16.1 0.00 0.00 0.00 87 1011.8
20260508142004 20 16 9.7 16.1 0.00 0.00 0.00 87 1011.8
20260508141902 20 358 9.7 16.1 0.00 0.00 0.00 86 1011.8
20260508141802 20 6 9.7 16.1 0.00 0.00 0.00 86 1011.8
20260508141704 20 0 8.0 16.1 0.00 0.00 0.00 86 1011.7
20260508141603 20 0 6.4 17.7 0.00 0.00 0.00 86 1011.7
20260508141503 20 21 6.4 19.3 0.00 0.00 0.00 86 1011.7
20260508141400 20 6 9.7 19.3 0.00 0.00 0.00 86 1011.7
20260508141258 20 28 11.3 19.3 0.00 0.00 0.00 86 1011.8
20260508141159 20 37 9.7 19.3 0.00 0.00 0.00 86 1011.8
20260508141056 20 44 9.7 19.3 0.00 0.00 0.00 86 1011.7
20260508140955 20 39 11.3 19.3 0.00 0.00 0.00 86 1011.8
20260508140854 20 30 11.3 19.3 0.00 0.00 0.00 86 1011.7
20260508140752 20 38 12.9 19.3 0.00 0.00 0.00 86 1011.7
20260508140652 20 17 14.5 19.3 0.00 0.00 0.00 86 1011.8
20260508140549 20 32 11.3 16.1 0.00 0.00 0.00 85 1011.7
20260508140446 20 37 9.7 16.1 0.00 0.00 0.00 86 1011.8
20260508140345 20 25 6.4 14.5 0.00 0.00 0.00 85 1011.8
20260508140244 20 66 8.0 14.5 0.00 0.00 0.00 85 1011.8
20260508140143 20 56 8.0 14.5 0.00 0.00 0.00 85 1011.8
20260508140043 20 68 9.7 14.5 0.00 0.00 0.00 85 1011.7
20260508135941 20 65 6.4 11.3 0.00 0.00 0.00 85 1011.6
20260508135841 20 31 4.8 11.3 0.00 0.00 0.00 86 1011.6
20260508135742 20 32 6.4 11.3 0.00 0.00 0.00 86 1011.5
20260508135641 20 11 4.8 11.3 0.00 0.00 0.00 86 1011.4
20260508135542 20 0 4.8 11.3 0.00 0.00 0.00 86 1011.5
20260508135442 20 0 8.0 11.3 0.00 0.00 0.00 85 1011.4
20260508135342 20 32 9.7 11.3 0.00 0.00 0.00 85 1011.3
20260508135242 20 31 9.7 11.3 0.00 0.00 0.00 85 1011.4
20260508135143 20 44 6.4 11.3 0.00 0.00 0.00 85 1011.4
20260508135041 20 11 4.8 11.3 0.00 0.00 0.00 85 1011.4
20260508134941 20 14 6.4 11.3 0.00 0.00 0.00 85 1011.4
20260508134842 20 1 8.0 11.3 0.00 0.00 0.00 85 1011.3
20260508134741 20 14 6.4 9.7 0.00 0.00 0.00 85 1011.3
20260508134641 20 6 6.4 8.0 0.00 0.00 0.00 85 1011.4
20260508134542 20 0 4.8 8.0 0.00 0.00 0.00 85 1011.4
20260508134441 20 351 4.8 8.0 0.00 0.00 0.00 85 1011.4
20260508134342 20 3 3.2 6.4 0.00 0.00 0.00 85 1011.5
20260508134241 20 3 4.8 6.4 0.00 0.00 0.00 85 1011.4
20260508134142 20 10 3.2 6.4 0.00 0.00 0.00 85 1011.4
20260508134040 20 11 3.2 6.4 0.00 0.00 0.00 84 1011.3
20260508133941 20 44 3.2 6.4 0.00 0.00 0.00 84 1011.4
20260508133842 20 45 1.6 6.4 0.00 0.00 0.00 85 1011.3
20260508133741 20 162 1.6 8.0 0.00 0.00 0.00 84 1011.3
20260508133641 20 100 1.6 8.0 0.00 0.00 0.00 85 1011.3
20260508133541 20 100 3.2 8.0 0.00 0.00 0.00 85 1011.2
20260508133442 20 100 3.2 8.0 0.00 0.00 0.00 85 1011.3
20260508133341 20 100 3.2 8.0 0.00 0.00 0.00 85 1011.2
20260508133240 20 107 3.2 8.0 0.00 0.00 0.00 85 1011.2
20260508133142 20 20 3.2 8.0 0.00 0.00 0.00 85 1011.2
20260508133042 20 18 3.2 11.3 0.00 0.00 0.00 85 1011.1
20260508132942 20 18 4.8 11.3 0.00 0.00 0.00 85 1011.1
20260508132841 20 17 4.8 11.3 0.00 0.00 0.00 85 1011.1
20260508132741 20 13 3.2 16.1 0.00 0.00 0.00 85 1011.0
20260508132640 20 14 4.8 16.1 0.00 0.00 0.00 85 1011.0
20260508132540 20 14 4.8 16.1 0.00 0.00 0.00 85 1011.0
20260508132441 20 13 6.4 16.1 0.00 0.00 0.00 85 1011.0
20260508132340 20 20 6.4 16.1 0.00 0.00 0.00 85 1011.1
20260508132240 20 14 6.4 16.1 0.00 0.00 0.00 85 1011.0
20260508132140 20 17 8.0 16.1 0.00 0.00 0.00 85 1010.9
20260508132041 20 21 8.0 16.1 0.00 0.00 0.00 85 1010.9
20260508131940 20 20 9.7 16.1 0.00 0.00 0.00 85 1010.9
20260508131841 20 21 11.3 16.1 0.00 0.00 0.00 85 1010.9
20260508131740 20 21 11.3 16.1 0.00 0.00 0.00 85 1010.8
20260508131641 20 17 9.7 16.1 0.00 0.00 0.00 85 1010.8
20260508131540 20 16 9.7 16.1 0.00 0.00 0.00 85 1010.8
20260508131440 20 20 9.7 16.1 0.00 0.00 0.00 85 1010.9
20260508131341 20 20 9.7 16.1 0.00 0.00 0.00 85 1010.9
20260508131240 20 20 9.7 16.1 0.00 0.00 0.00 85 1010.9
20260508131140 20 18 11.3 16.1 0.00 0.00 0.00 85 1010.9
20260508131041 20 18 12.9 16.1 0.00 0.00 0.00 85 1011.0
20260508130940 20 17 11.3 16.1 0.00 0.00 0.00 85 1011.0
20260508130841 20 28 9.7 14.5 0.00 0.00 0.00 85 1011.0
20260508130742 20 14 9.7 14.5 0.00 0.00 0.00 85 1011.1
20260508130640 20 18 9.7 14.5 0.00 0.00 0.00 85 1011.1
20260508130541 20 17 8.0 14.5 0.00 0.00 0.00 85 1011.1
20260508130440 20 20 8.0 14.5 0.00 0.00 0.00 85 1011.1
20260508130342 20 17 9.7 14.5 0.00 0.00 0.00 84 1011.2
20260508130241 20 18 9.7 14.5 0.00 0.00 0.00 85 1011.2
20260508130141 20 16 8.0 11.3 0.00 0.00 0.00 85 1011.2
20260508130041 20 14 8.0 11.3 0.00 0.00 0.00 84 1011.2
20260508125940 20 14 8.0 11.3 0.00 0.00 0.00 84 1011.1
20260508125841 20 16 6.4 11.3 0.00 0.00 0.00 85 1011.1
20260508125740 20 18 6.4 11.3 0.00 0.00 0.00 84 1011.1
20260508125640 20 16 8.0 11.3 0.00 0.00 0.00 84 1011.2
20260508125541 20 16 6.4 11.3 0.00 0.00 0.00 84 1011.2
20260508125441 20 6 3.2 9.7 0.00 0.00 0.00 84 1011.3
20260508125342 20 4 3.2 9.7 0.00 0.00 0.00 85 1011.3
20260508125239 20 3 1.6 9.7 0.00 0.00 0.00 85 1011.3
20260508125139 20 3 0.0 9.7 0.00 0.00 0.00 85 1011.3
20260508125040 20 8 1.6 9.7 0.00 0.00 0.00 85 1011.3
20260508124941 20 8 4.8 11.3 0.00 0.00 0.00 85 1011.2
20260508124840 20 8 4.8 11.3 0.00 0.00 0.00 85 1011.2
20260508124739 20 8 4.8 11.3 0.00 0.00 0.00 85 1011.1
20260508124639 20 10 6.4 11.3 0.00 0.00 0.00 85 1011.0
20260508124539 20 13 6.4 11.3 0.00 0.00 0.00 85 1011.0
20260508124441 20 7 8.0 11.3 0.00 0.00 0.00 85 1010.9
20260508124340 20 10 8.0 11.3 0.00 0.00 0.00 85 1010.9
20260508124240 20 6 8.0 11.3 0.00 0.00 0.00 85 1010.9
20260508124140 20 7 8.0 11.3 0.00 0.00 0.00 85 1010.9
20260508124039 20 7 6.4 11.3 0.00 0.00 0.00 85 1011.0
20260508123939 20 8 4.8 11.3 0.00 0.00 0.00 85 1011.0
20260508123839 20 4 4.8 11.3 0.00 0.00 0.00 85 1010.9
20260508123740 20 4 6.4 11.3 0.00 0.00 0.00 85 1011.0
20260508123640 20 0 6.4 11.3 0.00 0.00 0.00 85 1010.9
20260508123540 20 1 6.4 11.3 0.00 0.00 0.00 86 1011.0
20260508123439 20 1 4.8 11.3 0.00 0.00 0.00 86 1011.0
20260508123339 20 6 6.4 11.3 0.00 0.00 0.00 85 1011.0
20260508123240 20 7 6.4 11.3 0.00 0.00 0.00 85 1011.0
20260508123139 20 7 6.4 11.3 0.00 0.00 0.00 85 1011.0
20260508123040 20 3 4.8 11.3 0.00 0.00 0.00 85 1011.0
20260508122939 20 1 3.2 11.3 0.00 0.00 0.00 85 1011.1
20260508122839 20 6 6.4 11.3 0.00 0.00 0.00 85 1011.1
20260508122739 20 6 6.4 11.3 0.00 0.00 0.00 85 1011.1
20260508122639 20 3 6.4 9.7 0.00 0.00 0.00 85 1011.2
20260508122540 20 0 4.8 9.7 0.00 0.00 0.00 85 1011.3
20260508122440 20 0 6.4 9.7 0.00 0.00 0.00 85 1011.3
20260508122340 20 0 6.4 11.3 0.00 0.00 0.00 85 1011.2
20260508122240 20 1 4.8 11.3 0.00 0.00 0.00 85 1011.4
20260508122140 20 0 4.8 11.3 0.00 0.00 0.00 85 1011.4
20260508122039 20 0 4.8 11.3 0.00 0.00 0.00 85 1011.4
20260508121939 20 0 4.8 11.3 0.00 0.00 0.00 85 1011.4
20260508121840 20 0 4.8 11.3 0.00 0.00 0.00 85 1011.5
20260508121739 20 0 4.8 11.3 0.00 0.00 0.00 85 1011.5
20260508121639 20 3 6.4 11.3 0.00 0.00 0.00 85 1011.5
20260508121539 20 0 6.4 11.3 0.00 0.00 0.00 85 1011.5
20260508121439 20 4 6.4 11.3 0.00 0.00 0.00 85 1011.5
20260508121339 20 3 4.8 8.0 0.00 0.00 0.00 85 1011.5
20260508121240 20 4 4.8 8.0 0.00 0.00 0.00 85 1011.4
20260508121140 20 4 4.8 8.0 0.00 0.00 0.00 85 1011.4
20260508121038 20 4 4.8 8.0 0.00 0.00 0.00 85 1011.5
20260508120939 20 6 4.8 8.0 0.00 0.00 0.00 85 1011.5
20260508120840 20 7 3.2 6.4 0.00 0.00 0.00 85 1011.6
20260508120739 20 8 3.2 6.4 0.00 0.00 0.00 85 1011.6
20260508120639 20 1 3.2 8.0 0.00 0.00 0.00 85 1011.6
20260508120541 20 1 3.2 8.0 0.00 0.00 0.00 85 1011.6
20260508120440 20 1 3.2 11.3 0.00 0.00 0.00 85 1011.5
20260508120339 20 1 3.2 11.3 0.00 0.00 0.00 85 1011.5
20260508120239 20 0 3.2 11.3 0.00 0.00 0.00 85 1011.5
20260508120141 20 0 3.2 11.3 0.00 0.00 0.00 85 1011.5
20260508120040 20 0 3.2 11.3 0.00 0.00 0.00 85 1011.5
20260508115939 20 0 3.2 11.3 0.00 0.00 0.00 85 1011.4
20260508115840 20 3 4.8 11.3 0.00 0.00 0.00 85 1011.4
20260508115740 20 7 6.4 11.3 0.00 0.00 0.00 85 1011.4
20260508115639 20 7 8.0 11.3 0.00 0.00 0.00 85 1011.3
20260508115539 20 10 8.0 11.3 0.00 0.00 0.00 85 1011.4
20260508115438 20 8 8.0 11.3 0.00 0.00 0.00 85 1011.4
20260508115339 20 8 8.0 11.3 0.00 0.00 0.00 85 1011.4
20260508115238 20 4 6.4 11.3 0.00 0.00 0.00 85 1011.4
20260508115138 20 6 6.4 11.3 0.00 0.00 0.00 85 1011.4
20260508115039 20 6 4.8 11.3 0.00 0.00 0.00 85 1011.4
20260508114938 20 10 4.8 11.3 0.00 0.00 0.00 85 1011.4
20260508114838 20 4 6.4 11.3 0.00 0.00 0.00 85 1011.4
20260508114739 20 6 6.4 11.3 0.00 0.00 0.00 85 1011.3
20260508114639 20 1 6.4 11.3 0.00 0.00 0.00 85 1011.4
20260508114539 20 6 4.8 11.3 0.00 0.00 0.00 85 1011.4
20260508114438 20 4 4.8 11.3 0.00 0.00 0.00 85 1011.4
20260508114340 20 13 6.4 11.3 0.00 0.00 0.00 85 1011.4
20260508114238 20 14 8.0 11.3 0.00 0.00 0.00 85 1011.3
20260508114138 20 14 8.0 11.3 0.00 0.00 0.00 85 1011.4
20260508114040 20 8 8.0 11.3 0.00 0.00 0.00 85 1011.5
20260508113939 20 11 6.4 11.3 0.00 0.00 0.00 85 1011.6
20260508113839 20 11 6.4 11.3 0.00 0.00 0.00 85 1011.6
20260508113738 20 10 4.8 11.3 0.00 0.00 0.00 85 1011.6
20260508113640 20 11 3.2 11.3 0.00 0.00 0.00 85 1011.6
20260508113540 20 13 4.8 11.3 0.00 0.00 0.00 85 1011.7
20260508113438 20 13 4.8 11.3 0.00 0.00 0.00 85 1011.7
20260508113339 20 11 4.8 11.3 0.00 0.00 0.00 85 1011.8
20260508113239 20 8 6.4 11.3 0.00 0.00 0.00 85 1011.8
20260508113138 20 11 8.0 11.3 0.00 0.00 0.00 85 1011.8
20260508113039 20 13 6.4 11.3 0.00 0.00 0.00 85 1011.7
20260508112939 20 6 3.2 9.7 0.00 0.00 0.00 85 1011.6
20260508112837 20 4 4.8 9.7 0.00 0.00 0.00 85 1011.6
20260508112738 20 4 6.4 9.7 0.00 0.00 0.00 85 1011.6
20260508112640 20 6 6.4 8.0 0.00 0.00 0.00 85 1011.5
20260508112538 20 10 6.4 9.7 0.00 0.00 0.00 85 1011.5
20260508112440 20 8 4.8 9.7 0.00 0.00 0.00 85 1011.6
20260508112340 20 0 3.2 9.7 0.00 0.00 0.00 85 1011.6
20260508112239 20 0 4.8 9.7 0.00 0.00 0.00 85 1011.6
20260508112138 20 0 4.8 11.3 0.00 0.00 0.00 85 1011.6
20260508112037 20 0 3.2 14.5 0.00 0.00 0.00 85 1011.4
20260508111934 20 0 4.8 14.5 0.00 0.00 0.00 85 1011.3
20260508111834 20 1 4.8 14.5 0.00 0.00 0.00 85 1011.3
20260508111732 20 7 4.8 14.5 0.00 0.00 0.00 85 1011.1
20260508111632 20 13 4.8 14.5 0.00 0.00 0.00 85 1010.9
20260508111532 20 11 4.8 14.5 0.00 0.00 0.00 85 1010.8
20260508111431 20 11 6.4 14.5 0.00 0.00 0.00 85 1010.7
20260508111332 20 13 8.0 14.5 0.00 0.00 0.00 85 1010.6
20260508111231 20 8 8.0 14.5 0.00 0.00 0.00 85 1010.6
20260508111131 20 13 9.7 14.5 0.00 0.00 0.00 85 1010.6
20260508111031 20 14 9.7 14.5 0.00 0.00 0.00 85 1010.6
20260508110931 20 13 8.0 14.5 0.00 0.00 0.00 85 1010.6
20260508110832 20 11 6.4 16.1 0.00 0.00 0.00 85 1010.6
20260508110732 20 14 8.0 16.1 0.00 0.00 0.00 85 1010.6
20260508110632 20 18 6.4 16.1 0.00 0.00 0.00 85 1010.6
20260508110531 20 11 6.4 16.1 0.00 0.00 0.00 85 1010.7
20260508110431 20 11 8.0 16.1 0.00 0.00 0.00 85 1010.6
20260508110332 20 10 9.7 16.1 0.00 0.00 0.00 85 1010.7
20260508110232 20 14 8.0 16.1 0.00 0.00 0.00 85 1010.7
20260508110131 20 13 8.0 16.1 0.00 0.00 0.00 86 1010.7
20260508110031 20 17 9.7 16.1 0.00 0.00 0.00 86 1010.7
20260508105931 20 18 11.3 16.1 0.00 0.00 0.00 86 1010.7
20260508105832 20 18 11.3 14.5 0.00 0.00 0.00 86 1010.7
20260508105731 20 13 11.3 14.5 0.00 0.00 0.00 86 1010.7
20260508105626 20 11 9.7 14.5 0.00 0.00 0.00 86 1010.7
20260508105525 20 16 8.0 11.3 0.00 0.00 0.00 86 1010.8
20260508105425 20 17 8.0 11.3 0.00 0.00 0.00 86 1010.8
20260508105323 20 13 8.0 11.3 0.00 0.00 0.00 86 1010.9
20260508105214 20 14 6.4 11.3 0.00 0.00 0.00 86 1010.9
20260508105114 20 10 6.4 11.3 0.00 0.00 0.00 86 1011.0
20260508105011 20 11 6.4 11.3 0.00 0.00 0.00 86 1011.0
20260508104910 20 7 6.4 11.3 0.00 0.00 0.00 86 1011.0
20260508104809 20 8 9.7 11.3 0.00 0.00 0.00 86 1011.0
20260508104709 20 11 8.0 11.3 0.00 0.00 0.00 86 1011.1
20260508104606 20 8 8.0 11.3 0.00 0.00 0.00 86 1011.1
20260508104506 20 10 8.0 11.3 0.00 0.00 0.00 86 1011.1
20260508104402 20 6 9.7 11.3 0.00 0.00 0.00 86 1011.1
20260508104302 20 7 9.7 11.3 0.00 0.00 0.00 86 1011.1
20260508104203 20 7 8.0 11.3 0.00 0.00 0.00 86 1011.3
20260508104102 20 6 6.4 11.3 0.00 0.00 0.00 87 1011.3
20260508104003 20 4 6.4 9.7 0.00 0.00 0.00 86 1011.4
20260508103902 20 0 8.0 9.7 0.00 0.00 0.00 87 1011.3
20260508103803 20 0 6.4 9.7 0.00 0.00 0.00 87 1011.3
20260508103702 20 1 4.8 9.7 0.00 0.00 0.00 87 1011.3
20260508103602 20 0 4.8 9.7 0.00 0.00 0.00 87 1011.4
20260508103503 20 0 4.8 9.7 0.00 0.00 0.00 87 1011.4
20260508103403 20 0 4.8 9.7 0.00 0.00 0.00 87 1011.4
20260508103301 20 3 6.4 9.7 0.00 0.00 0.00 87 1011.4
20260508103202 20 3 6.4 14.5 0.00 0.00 0.00 87 1011.5
20260508103103 20 6 4.8 14.5 0.00 0.00 0.00 87 1011.4
20260508103002 20 6 4.8 14.5 0.00 0.00 0.00 86 1011.3
20260508102902 20 8 6.4 14.5 0.00 0.00 0.00 86 1011.2
20260508102803 20 11 6.4 16.1 0.00 0.00 0.00 86 1011.0
20260508102701 20 8 8.0 16.1 0.00 0.00 0.00 86 1011.0
20260508102603 20 13 8.0 16.1 0.00 0.00 0.00 86 1011.0
20260508102503 20 13 8.0 16.1 0.00 0.00 0.00 86 1010.9
20260508102403 20 13 8.0 16.1 0.00 0.00 0.00 86 1010.9
20260508102306 20 13 8.0 16.1 0.00 0.00 0.00 86 1010.7
20260508102202 20 10 9.7 16.1 0.00 0.00 0.00 86 1010.6
20260508102103 20 14 9.7 16.1 0.00 0.00 0.00 86 1010.6
20260508102004 20 16 9.7 16.1 0.00 0.00 0.00 86 1010.5
20260508101903 20 8 9.7 17.7 0.00 0.00 0.00 86 1010.6
20260508101803 20 10 9.7 17.7 0.00 0.00 0.00 86 1010.6
20260508101702 20 6 11.3 17.7 0.00 0.00 0.00 86 1010.5
20260508101603 20 13 9.7 17.7 0.00 0.00 0.00 86 1010.5
20260508101502 20 4 8.0 17.7 0.00 0.00 0.00 86 1010.5
20260508101403 20 13 8.0 17.7 0.00 0.00 0.00 86 1010.5
20260508101303 20 10 8.0 17.7 0.00 0.00 0.00 86 1010.7
20260508101202 20 16 8.0 17.7 0.00 0.00 0.00 86 1010.7
20260508101103 20 10 9.7 17.7 0.00 0.00 0.00 86 1010.7
20260508101003 20 11 11.3 17.7 0.00 0.00 0.00 86 1010.6
20260508100902 20 10 9.7 16.1 0.00 0.00 0.00 86 1010.7
20260508100802 20 11 8.0 16.1 0.00 0.00 0.00 86 1010.8
20260508100704 20 8 6.4 16.1 0.00 0.00 0.00 86 1010.9
20260508100602 20 7 6.4 16.1 0.00 0.00 0.00 86 1011.0
20260508100502 20 0 6.4 16.1 0.00 0.00 0.00 86 1011.1
20260508100403 20 11 9.7 16.1 0.00 0.00 0.00 86 1011.1
20260508100302 20 10 9.7 16.1 0.00 0.00 0.00 86 1011.1
20260508100202 20 4 9.7 16.1 0.00 0.00 0.00 86 1011.2
20260508100103 20 8 9.7 16.1 0.00 0.00 0.00 86 1011.1
20260508100003 20 6 8.0 16.1 0.00 0.00 0.00 86 1011.2
20260508095902 20 11 8.0 16.1 0.00 0.00 0.00 87 1011.2
20260508095802 20 8 8.0 16.1 0.00 0.00 0.00 86 1011.3
20260508095702 20 6 8.0 16.1 0.00 0.00 0.00 86 1011.3
20260508095602 20 6 9.7 16.1 0.00 0.00 0.00 86 1011.3
20260508095502 20 4 8.0 16.1 0.00 0.00 0.00 86 1011.4
20260508095403 20 0 6.4 16.1 0.00 0.00 0.00 87 1011.3
20260508095306 20 1 6.4 16.1 0.00 0.00 0.00 87 1011.3
20260508095203 20 3 8.0 11.3 0.00 0.00 0.00 86 1011.3
20260508095102 20 7 8.0 11.3 0.00 0.00 0.00 86 1011.3
20260508095003 20 4 6.4 11.3 0.00 0.00 0.00 86 1011.3
20260508094903 20 4 6.4 16.1 0.00 0.00 0.00 86 1011.3
20260508094802 20 0 4.8 16.1 0.00 0.00 0.00 86 1011.3
20260508094703 20 0 3.2 16.1 0.00 0.00 0.00 86 1011.3
20260508094604 20 0 4.8 16.1 0.00 0.00 0.00 86 1011.3
20260508094503 20 0 4.8 16.1 0.00 0.00 0.00 86 1011.4
20260508094402 20 0 4.8 16.1 0.00 0.00 0.00 86 1011.4
20260508094303 20 0 4.8 16.1 0.00 0.00 0.00 86 1011.4
20260508094203 20 0 6.4 16.1 0.00 0.00 0.00 86 1011.4
20260508094103 20 4 8.0 16.1 0.00 0.00 0.00 86 1011.3
20260508094004 20 3 8.0 16.1 0.00 0.00 0.00 86 1011.2
20260508093903 20 0 6.4 14.5 0.00 0.00 0.00 86 1011.1
20260508093803 20 7 6.4 19.3 0.00 0.00 0.00 86 1011.1
20260508093704 20 4 8.0 19.3 0.00 0.00 0.00 86 1010.9
20260508093602 20 13 6.4 19.3 0.00 0.00 0.00 86 1010.8
20260508093502 20 7 6.4 19.3 0.00 0.00 0.00 86 1010.6
20260508093403 20 11 8.0 19.3 0.00 0.00 0.00 86 1010.6
20260508093303 20 16 8.0 19.3 0.00 0.00 0.00 86 1010.5
20260508093202 20 17 9.7 19.3 0.00 0.00 0.00 86 1010.6
20260508093102 20 13 9.7 19.3 0.00 0.00 0.00 86 1010.6
20260508093005 20 13 9.7 22.5 0.00 0.00 0.00 86 1010.6
20260508092903 20 14 12.9 22.5 0.00 0.00 0.00 86 1010.6
20260508092803 20 16 12.9 22.5 0.00 0.00 0.00 86 1010.5
20260508092702 20 17 14.5 22.5 0.00 0.00 0.00 86 1010.5
20260508092602 20 14 12.9 22.5 0.00 0.00 0.00 86 1010.5
20260508092503 20 10 11.3 22.5 0.00 0.00 0.00 86 1010.5
20260508092401 20 17 9.7 22.5 0.00 0.00 0.00 86 1010.5
20260508092312 20 14 11.3 22.5 0.00 0.00 0.00 86 1010.5
20260508092202 20 16 16.1 22.5 0.00 0.00 0.00 86 1010.4
20260508092101 20 18 16.1 22.5 0.00 0.00 0.00 86 1010.3
20260508092003 20 13 14.5 20.9 0.00 0.00 0.00 86 1010.4
20260508091903 20 18 14.5 20.9 0.00 0.00 0.00 86 1010.5
20260508091802 20 16 14.5 20.9 0.00 0.00 0.00 86 1010.6
20260508091702 20 10 11.3 17.7 0.00 0.00 0.00 86 1010.6
20260508091604 20 11 8.0 14.5 0.00 0.00 0.00 86 1010.6
20260508091502 20 11 6.4 14.5 0.00 0.00 0.00 86 1010.7
20260508091401 20 8 6.4 14.5 0.00 0.00 0.00 86 1010.8
20260508091300 20 8 8.0 14.5 0.00 0.00 0.00 86 1010.8
20260508091159 20 7 6.4 14.5 0.00 0.00 0.00 86 1010.8
20260508091056 20 7 6.4 14.5 0.00 0.00 0.00 86 1010.8
20260508090955 20 8 8.0 14.5 0.00 0.00 0.00 85 1010.8
20260508090852 20 7 9.7 14.5 0.00 0.00 0.00 85 1010.8
20260508090751 20 8 8.0 14.5 0.00 0.00 0.00 85 1010.8
20260508090649 20 6 8.0 11.3 0.00 0.00 0.00 85 1010.7
20260508090549 20 6 8.0 11.3 0.00 0.00 0.00 85 1010.7
20260508090446 20 8 8.0 11.3 0.00 0.00 0.00 85 1010.7
20260508090342 20 8 8.0 11.3 0.00 0.00 0.00 85 1010.9
20260508090239 20 8 9.7 11.3 0.00 0.00 0.00 85 1010.9
20260508090138 20 7 8.0 11.3 0.00 0.00 0.00 85 1011.0
20260508090039 20 7 8.0 11.3 0.00 0.00 0.00 85 1011.0
20260508085935 20 14 6.4 11.3 0.00 0.00 0.00 85 1011.1
20260508085835 20 11 6.4 11.3 0.00 0.00 0.00 85 1011.1
20260508085736 20 13 6.4 11.3 0.00 0.00 0.00 85 1011.1
20260508085634 20 13 8.0 11.3 0.00 0.00 0.00 85 1011.1
20260508085534 20 11 9.7 11.3 0.00 0.00 0.00 85 1011.1
20260508085434 20 11 8.0 9.7 0.00 0.00 0.00 85 1011.1
20260508085335 20 7 6.4 9.7 0.00 0.00 0.00 85 1011.2
20260508085234 20 10 4.8 9.7 0.00 0.00 0.00 85 1011.1
20260508085134 20 8 6.4 9.7 0.00 0.00 0.00 85 1011.0
20260508085035 20 8 8.0 9.7 0.00 0.00 0.00 85 1011.0
20260508084934 20 8 8.0 9.7 0.00 0.00 0.00 85 1011.0
20260508084835 20 6 6.4 9.7 0.00 0.00 0.00 85 1011.0
20260508084735 20 10 6.4 9.7 0.00 0.00 0.00 85 1011.0
20260508084635 20 8 6.4 9.7 0.00 0.00 0.00 85 1011.1
20260508084534 20 11 6.4 9.7 0.00 0.00 0.00 85 1011.1
20260508084434 20 6 6.4 9.7 0.00 0.00 0.00 85 1011.1
20260508084335 20 10 6.4 9.7 0.00 0.00 0.00 85 1011.1
20260508084234 20 10 6.4 9.7 0.00 0.00 0.00 85 1011.1
20260508084135 20 10 6.4 9.7 0.00 0.00 0.00 85 1011.2
20260508084035 20 10 6.4 9.7 0.00 0.00 0.00 85 1011.2
20260508083935 20 8 4.8 9.7 0.00 0.00 0.00 85 1011.2
20260508083834 20 11 4.8 9.7 0.00 0.00 0.00 85 1011.2
20260508083734 20 7 4.8 9.7 0.00 0.00 0.00 85 1011.3
20260508083635 20 8 6.4 9.7 0.00 0.00 0.00 85 1011.2
20260508083534 20 7 6.4 9.7 0.00 0.00 0.00 85 1011.3
20260508083435 20 4 4.8 9.7 0.00 0.00 0.00 85 1011.3
20260508083334 20 4 4.8 9.7 0.00 0.00 0.00 85 1011.3
20260508083233 20 4 4.8 11.3 0.00 0.00 0.00 85 1011.3
20260508083136 20 3 4.8 11.3 0.00 0.00 0.00 85 1011.3
20260508083032 20 3 4.8 16.1 0.00 0.00 0.00 85 1011.2
20260508082931 20 3 6.4 16.1 0.00 0.00 0.00 84 1011.3
20260508082831 20 3 6.4 16.1 0.00 0.00 0.00 84 1011.2
20260508082732 20 3 8.0 16.1 0.00 0.00 0.00 84 1011.3
20260508082631 20 6 6.4 16.1 0.00 0.00 0.00 84 1011.2
20260508082530 20 4 6.4 16.1 0.00 0.00 0.00 84 1011.2
20260508082431 20 6 8.0 16.1 0.00 0.00 0.00 84 1011.2
20260508082332 20 4 9.7 16.1 0.00 0.00 0.00 84 1011.1
20260508082230 20 6 9.7 17.7 0.00 0.00 0.00 84 1011.1
20260508082128 20 7 8.0 17.7 0.00 0.00 0.00 84 1011.1
20260508082023 20 6 8.0 17.7 0.00 0.00 0.00 84 1011.0
20260508081921 20 8 8.0 17.7 0.00 0.00 0.00 84 1011.0
20260508081821 20 6 8.0 17.7 0.00 0.00 0.00 84 1011.0
20260508081718 20 7 9.7 19.3 0.00 0.00 0.00 84 1010.9
20260508081617 20 8 9.7 19.3 0.00 0.00 0.00 84 1011.0
20260508081516 20 4 8.0 19.3 0.00 0.00 0.00 84 1010.9
20260508081415 20 10 9.7 19.3 0.00 0.00 0.00 84 1010.9
20260508081313 20 6 12.9 19.3 0.00 0.00 0.00 84 1010.9
20260508081210 20 7 11.3 19.3 0.00 0.00 0.00 84 1010.9
20260508081108 20 7 9.7 19.3 0.00 0.00 0.00 84 1010.9
20260508081007 20 6 11.3 19.3 0.00 0.00 0.00 84 1010.9
20260508080903 20 11 14.5 19.3 0.00 0.00 0.00 84 1010.8
20260508080804 20 7 12.9 19.3 0.00 0.00 0.00 84 1010.9
20260508080704 20 8 12.9 17.7 0.00 0.00 0.00 84 1011.0
20260508080602 20 6 12.9 17.7 0.00 0.00 0.00 84 1010.9
20260508080504 20 3 12.9 17.7 0.00 0.00 0.00 84 1010.9
20260508080403 20 7 11.3 17.7 0.00 0.00 0.00 84 1011.0
20260508080303 20 7 9.7 17.7 0.00 0.00 0.00 84 1011.1
20260508080203 20 8 9.7 17.7 0.00 0.00 0.00 84 1011.2
20260508080002 20 6 8.0 14.5 0.00 0.00 0.00 84 1011.2
20260508075903 20 7 8.0 14.5 0.00 0.00 0.00 84 1011.3
20260508075804 20 0 8.0 14.5 0.00 0.00 0.00 84 1011.4
20260508075702 20 0 6.4 11.3 0.00 0.00 0.00 84 1011.4
20260508075602 20 6 6.4 11.3 0.00 0.00 0.00 84 1011.5
20260508075503 20 0 6.4 11.3 0.00 0.00 0.00 84 1011.5
20260508075403 20 3 6.4 11.3 0.00 0.00 0.00 84 1011.5
20260508075301 20 3 6.4 11.3 0.00 0.00 0.00 84 1011.5
20260508075203 20 0 4.8 11.3 0.00 0.00 0.00 84 1011.4
20260508075103 20 6 4.8 14.5 0.00 0.00 0.00 84 1011.5
20260508075004 20 4 4.8 14.5 0.00 0.00 0.00 84 1011.4
20260508074902 20 4 6.4 14.5 0.00 0.00 0.00 84 1011.4
20260508074802 20 6 6.4 14.5 0.00 0.00 0.00 84 1011.4
20260508074703 20 3 6.4 14.5 0.00 0.00 0.00 83 1011.4
20260508074602 20 4 8.0 14.5 0.00 0.00 0.00 84 1011.3
20260508074503 20 4 8.0 14.5 0.00 0.00 0.00 84 1011.4
20260508074403 20 0 6.4 14.5 0.00 0.00 0.00 84 1011.4
20260508074302 20 3 6.4 14.5 0.00 0.00 0.00 84 1011.4
20260508074202 20 0 6.4 14.5 0.00 0.00 0.00 84 1011.5
20260508074103 20 3 4.8 14.5 0.00 0.00 0.00 84 1011.5
20260508074004 20 4 3.2 14.5 0.00 0.00 0.00 84 1011.6
20260508073902 20 0 4.8 14.5 0.00 0.00 0.00 84 1011.6
20260508073802 20 0 6.4 14.5 0.00 0.00 0.00 84 1011.6
20260508073704 20 6 8.0 14.5 0.00 0.00 0.00 84 1011.6
20260508073603 20 7 8.0 14.5 0.00 0.00 0.00 84 1011.7
20260508073505 20 3 6.4 14.5 0.00 0.00 0.00 83 1011.6
20260508073402 20 3 6.4 9.7 0.00 0.00 0.00 83 1011.7
20260508073302 20 3 6.4 9.7 0.00 0.00 0.00 83 1011.6
20260508073202 20 0 4.8 11.3 0.00 0.00 0.00 83 1011.6
20260508073102 20 0 4.8 11.3 0.00 0.00 0.00 83 1011.6
20260508073005 20 3 3.2 14.5 0.00 0.00 0.00 83 1011.6
20260508072902 20 0 4.8 14.5 0.00 0.00 0.00 83 1011.6
20260508072803 20 0 6.4 14.5 0.00 0.00 0.00 83 1011.5
20260508072703 20 7 6.4 14.5 0.00 0.00 0.00 83 1011.5
20260508072602 20 1 4.8 14.5 0.00 0.00 0.00 83 1011.5
20260508072502 20 0 4.8 14.5 0.00 0.00 0.00 83 1011.4
20260508072403 20 1 6.4 14.5 0.00 0.00 0.00 83 1011.5
20260508072307 20 0 6.4 14.5 0.00 0.00 0.00 83 1011.4
20260508072204 20 4 8.0 14.5 0.00 0.00 0.00 83 1011.4
20260508072103 20 0 8.0 14.5 0.00 0.00 0.00 83 1011.4
20260508072004 20 6 4.8 11.3 0.00 0.00 0.00 83 1011.3
20260508071903 20 0 6.4 11.3 0.00 0.00 0.00 83 1011.3
20260508071802 20 4 8.0 11.3 0.00 0.00 0.00 83 1011.3
20260508071703 20 7 6.4 11.3 0.00 0.00 0.00 83 1011.3
20260508071602 20 6 6.4 9.7 0.00 0.00 0.00 83 1011.3
20260508071502 20 6 6.4 9.7 0.00 0.00 0.00 83 1011.3
20260508071402 20 7 6.4 9.7 0.00 0.00 0.00 83 1011.4
20260508071302 20 3 3.2 14.5 0.00 0.00 0.00 83 1011.4
20260508071202 20 1 3.2 14.5 0.00 0.00 0.00 83 1011.5
20260508071104 20 1 4.8 14.5 0.00 0.00 0.00 84 1011.5
20260508071003 20 1 4.8 14.5 0.00 0.00 0.00 84 1011.5
20260508070902 20 10 4.8 14.5 0.00 0.00 0.00 84 1011.5
20260508070804 20 8 8.0 14.5 0.00 0.00 0.00 84 1011.4
20260508070704 20 8 8.0 14.5 0.00 0.00 0.00 84 1011.3
20260508070603 20 8 8.0 14.5 0.00 0.00 0.00 84 1011.3
20260508070504 20 8 8.0 14.5 0.00 0.00 0.00 84 1011.3
20260508070402 20 0 6.4 14.5 0.00 0.00 0.00 84 1011.3
20260508070304 20 3 3.2 8.0 0.00 0.00 0.00 84 1011.3
20260508070202 20 4 3.2 8.0 0.00 0.00 0.00 84 1011.4
20260508070105 20 4 3.2 8.0 0.00 0.00 0.00 84 1011.4
20260508070003 20 4 4.8 8.0 0.00 0.00 0.00 84 1011.4
20260508065902 20 4 6.4 8.0 0.00 0.00 0.00 84 1011.3
20260508065804 20 4 6.4 8.0 0.00 0.00 0.00 84 1011.3
20260508065704 20 7 6.4 8.0 0.00 0.00 0.00 84 1011.2
20260508065603 20 7 6.4 9.7 0.00 0.00 0.00 84 1011.3
20260508065505 20 7 6.4 9.7 0.00 0.00 0.00 84 1011.2
20260508065404 20 7 6.4 9.7 0.00 0.00 0.00 84 1011.3
20260508065306 20 7 6.4 9.7 0.00 0.00 0.00 84 1011.3
20260508065202 20 6 6.4 9.7 0.00 0.00 0.00 84 1011.4
20260508065103 20 8 6.4 9.7 0.00 0.00 0.00 83 1011.4
20260508065002 20 8 6.4 9.7 0.00 0.00 0.00 84 1011.4
20260508064904 20 7 6.4 9.7 0.00 0.00 0.00 84 1011.4
20260508064801 20 6 8.0 9.7 0.00 0.00 0.00 84 1011.5
20260508064702 20 7 8.0 9.7 0.00 0.00 0.00 84 1011.5
20260508064603 20 7 6.4 9.7 0.00 0.00 0.00 84 1011.5
20260508064503 20 10 4.8 8.0 0.00 0.00 0.00 84 1011.5
20260508064402 20 11 4.8 8.0 0.00 0.00 0.00 84 1011.5
20260508064303 20 11 4.8 8.0 0.00 0.00 0.00 84 1011.6
20260508064202 20 11 4.8 8.0 0.00 0.00 0.00 84 1011.5
20260508064102 20 4 3.2 8.0 0.00 0.00 0.00 84 1011.5
20260508064003 20 4 4.8 8.0 0.00 0.00 0.00 84 1011.4
20260508063904 20 7 4.8 8.0 0.00 0.00 0.00 83 1011.5
20260508063804 20 6 4.8 8.0 0.00 0.00 0.00 83 1011.5
20260508063703 20 4 4.8 8.0 0.00 0.00 0.00 83 1011.5
20260508063603 20 4 4.8 8.0 0.00 0.00 0.00 83 1011.6
20260508063503 20 4 4.8 8.0 0.00 0.00 0.00 83 1011.5
20260508063403 20 10 4.8 9.7 0.00 0.00 0.00 83 1011.6
20260508063303 20 10 4.8 11.3 0.00 0.00 0.00 83 1011.6
20260508063201 20 6 4.8 11.3 0.00 0.00 0.00 83 1011.6
20260508063102 20 8 3.2 11.3 0.00 0.00 0.00 83 1011.5
20260508063002 20 8 3.2 11.3 0.00 0.00 0.00 83 1011.5
20260508062904 20 11 3.2 11.3 0.00 0.00 0.00 83 1011.4
20260508062803 20 11 6.4 11.3 0.00 0.00 0.00 83 1011.4
20260508062701 20 13 6.4 11.3 0.00 0.00 0.00 83 1011.4
20260508062602 20 11 6.4 11.3 0.00 0.00 0.00 83 1011.4
20260508062504 20 13 8.0 11.3 0.00 0.00 0.00 83 1011.3
20260508062402 20 13 6.4 11.3 0.00 0.00 0.00 84 1011.3
20260508062306 20 17 6.4 9.7 0.00 0.00 0.00 83 1011.3
20260508062203 20 17 6.4 9.7 0.00 0.00 0.00 83 1011.3
20260508062102 20 14 6.4 8.0 0.00 0.00 0.00 84 1011.3
20260508062005 20 16 6.4 8.0 0.00 0.00 0.00 84 1011.4
20260508061903 20 16 6.4 8.0 0.00 0.00 0.00 84 1011.4
20260508061803 20 14 4.8 8.0 0.00 0.00 0.00 84 1011.5
20260508061701 20 13 4.8 8.0 0.00 0.00 0.00 84 1011.5
20260508061600 20 11 4.8 8.0 0.00 0.00 0.00 84 1011.6
20260508061459 20 13 3.2 8.0 0.00 0.00 0.00 84 1011.6
20260508061358 20 4 3.2 8.0 0.00 0.00 0.00 84 1011.7
20260508061245 20 4 4.8 8.0 0.00 0.00 0.00 84 1011.8
20260508061142 20 4 3.2 8.0 0.00 0.00 0.00 84 1011.8
20260508061042 20 1 1.6 6.4 0.00 0.00 0.00 84 1011.9
20260508060940 20 1 1.6 6.4 0.00 0.00 0.00 83 1012.0
20260508060835 20 1 0.0 6.4 0.00 0.00 0.00 83 1012.0
20260508060735 20 1 1.6 6.4 0.00 0.00 0.00 83 1012.1
20260508060632 20 1 1.6 6.4 0.00 0.00 0.00 83 1011.9
20260508060532 20 4 1.6 6.4 0.00 0.00 0.00 83 1011.9
20260508060432 20 4 1.6 6.4 0.00 0.00 0.00 83 1011.8
20260508060331 20 3 3.2 6.4 0.00 0.00 0.00 83 1011.7
20260508060231 20 4 3.2 8.0 0.00 0.00 0.00 83 1011.7
20260508060131 20 6 3.2 8.0 0.00 0.00 0.00 83 1011.7
20260508060032 20 1 3.2 8.0 0.00 0.00 0.00 83 1011.6
20260508055931 20 1 3.2 8.0 0.00 0.00 0.00 83 1011.7
20260508055831 20 4 3.2 8.0 0.00 0.00 0.00 83 1011.6
20260508055733 20 34 3.2 8.0 0.00 0.00 0.00 83 1011.7
20260508055631 20 34 4.8 8.0 0.00 0.00 0.00 83 1011.5
20260508055531 20 35 3.2 8.0 0.00 0.00 0.00 83 1011.5
20260508055432 20 35 4.8 8.0 0.00 0.00 0.00 82 1011.4
20260508055331 20 58 4.8 8.0 0.00 0.00 0.00 82 1011.3
20260508055231 20 58 3.2 8.0 0.00 0.00 0.00 82 1011.3
20260508055131 20 62 4.8 9.7 0.00 0.00 0.00 82 1011.2
20260508055032 20 61 4.8 9.7 0.00 0.00 0.00 82 1011.3
20260508054932 20 51 3.2 9.7 0.00 0.00 0.00 82 1011.3
20260508054831 20 48 3.2 9.7 0.00 0.00 0.00 82 1011.3
20260508054732 20 45 3.2 9.7 0.00 0.00 0.00 82 1011.3
20260508054632 20 45 4.8 9.7 0.00 0.00 0.00 82 1011.3
20260508054531 20 44 3.2 9.7 0.00 0.00 0.00 82 1011.4
20260508054432 20 42 4.8 9.7 0.00 0.00 0.00 82 1011.4
20260508054332 20 62 6.4 9.7 0.00 0.00 0.00 82 1011.5
20260508054231 20 58 4.8 9.7 0.00 0.00 0.00 82 1011.6
20260508054131 20 52 3.2 9.7 0.00 0.00 0.00 82 1011.4
20260508054032 20 54 4.8 9.7 0.00 0.00 0.00 82 1011.4
20260508053932 20 62 4.8 9.7 0.00 0.00 0.00 82 1011.4
20260508053831 20 68 6.4 9.7 0.00 0.00 0.00 82 1011.4
20260508053731 20 52 6.4 9.7 0.00 0.00 0.00 82 1011.5
20260508053631 20 39 4.8 9.7 0.00 0.00 0.00 82 1011.5
20260508053532 20 49 4.8 8.0 0.00 0.00 0.00 82 1011.5
20260508053432 20 51 6.4 8.0 0.00 0.00 0.00 82 1011.4
20260508053332 20 41 6.4 8.0 0.00 0.00 0.00 82 1011.5
20260508053232 20 37 4.8 8.0 0.00 0.00 0.00 82 1011.4
20260508053130 20 32 4.8 8.0 0.00 0.00 0.00 81 1011.5
20260508053031 21 32 3.2 9.7 0.00 0.00 0.00 81 1011.5
20260508052931 21 32 3.2 9.7 0.00 0.00 0.00 81 1011.5
20260508052830 21 32 3.2 9.7 0.00 0.00 0.00 81 1011.5
20260508052730 21 32 3.2 9.7 0.00 0.00 0.00 81 1011.4
20260508052631 21 21 4.8 9.7 0.00 0.00 0.00 81 1011.5
20260508052532 21 38 4.8 9.7 0.00 0.00 0.00 81 1011.4
20260508052429 21 35 4.8 9.7 0.00 0.00 0.00 81 1011.5
20260508052330 21 32 4.8 9.7 0.00 0.00 0.00 81 1011.4
20260508052232 21 35 6.4 9.7 0.00 0.00 0.00 81 1011.4
20260508052131 21 35 6.4 9.7 0.00 0.00 0.00 81 1011.4
20260508052029 21 39 4.8 9.7 0.00 0.00 0.00 81 1011.4
20260508051930 21 30 4.8 9.7 0.00 0.00 0.00 81 1011.4
20260508051831 21 37 4.8 9.7 0.00 0.00 0.00 81 1011.3
20260508051729 21 54 4.8 9.7 0.00 0.00 0.00 81 1011.3
20260508051629 21 55 3.2 9.7 0.00 0.00 0.00 81 1011.4
20260508051531 21 48 4.8 9.7 0.00 0.00 0.00 81 1011.3
20260508051431 21 83 3.2 9.7 0.00 0.00 0.00 81 1011.3
20260508051329 21 45 3.2 9.7 0.00 0.00 0.00 81 1011.3
20260508051230 21 39 6.4 9.7 0.00 0.00 0.00 81 1011.3
20260508051130 21 54 6.4 9.7 0.00 0.00 0.00 81 1011.3
20260508051029 21 45 6.4 9.7 0.00 0.00 0.00 80 1011.3
20260508050929 21 58 6.4 9.7 0.00 0.00 0.00 81 1011.4
20260508050832 21 59 6.4 8.0 0.00 0.00 0.00 80 1011.4
20260508050731 21 59 4.8 8.0 0.00 0.00 0.00 80 1011.5
20260508050629 21 31 4.8 8.0 0.00 0.00 0.00 80 1011.5
20260508050529 21 31 4.8 8.0 0.00 0.00 0.00 80 1011.6
20260508050431 21 42 4.8 8.0 0.00 0.00 0.00 80 1011.6
20260508050329 21 42 6.4 8.0 0.00 0.00 0.00 80 1011.6
20260508050230 21 35 6.4 8.0 0.00 0.00 0.00 80 1011.6
20260508050131 21 45 4.8 8.0 0.00 0.00 0.00 80 1011.6
20260508050030 21 45 4.8 8.0 0.00 0.00 0.00 80 1011.5
20260508045931 21 45 4.8 8.0 0.00 0.00 0.00 80 1011.4
20260508045806 21 59 4.8 8.0 0.00 0.00 0.00 80 1011.5
20260508045705 21 31 3.2 8.0 0.00 0.00 0.00 80 1011.4
20260508045603 21 31 3.2 8.0 0.00 0.00 0.00 80 1011.6
20260508045504 21 31 3.2 8.0 0.00 0.00 0.00 80 1011.6
20260508045402 21 31 3.2 9.7 0.00 0.00 0.00 80 1011.7
20260508045306 21 31 3.2 9.7 0.00 0.00 0.00 80 1011.6
20260508045203 21 31 3.2 9.7 0.00 0.00 0.00 80 1011.7
20260508045102 21 31 4.8 9.7 0.00 0.00 0.00 79 1011.7
20260508045003 21 31 4.8 9.7 0.00 0.00 0.00 79 1011.7
20260508044902 21 42 4.8 9.7 0.00 0.00 0.00 79 1011.6
20260508044802 21 31 4.8 9.7 0.00 0.00 0.00 79 1011.6
20260508044702 21 31 4.8 9.7 0.00 0.00 0.00 79 1011.5
20260508044603 21 30 6.4 14.5 0.00 0.00 0.00 79 1011.6
20260508044504 21 28 6.4 14.5 0.00 0.00 0.00 78 1011.7
20260508044403 21 34 6.4 14.5 0.00 0.00 0.00 78 1011.7
20260508044303 21 28 6.4 14.5 0.00 0.00 0.00 78 1011.7
20260508044203 21 34 8.0 16.1 0.00 0.00 0.00 78 1011.8
20260508044103 21 32 8.0 17.7 0.00 0.00 0.00 78 1011.8
20260508044004 21 31 6.4 17.7 0.00 0.00 0.00 78 1011.8
20260508043902 21 44 4.8 17.7 0.00 0.00 0.00 78 1011.8
20260508043802 21 63 6.4 17.7 0.00 0.00 0.00 78 1011.6
20260508043703 21 45 9.7 17.7 0.00 0.00 0.00 78 1011.6
20260508043603 21 56 9.7 17.7 0.00 0.00 0.00 78 1011.6
20260508043504 21 80 8.0 17.7 0.00 0.00 0.00 78 1011.6
20260508043402 21 65 9.7 17.7 0.00 0.00 0.00 78 1011.6
20260508043304 21 51 12.9 17.7 0.00 0.00 0.00 78 1011.7
20260508043203 21 103 11.3 17.7 0.00 0.00 0.00 79 1011.7
20260508043103 21 71 8.0 14.5 0.00 0.00 0.00 79 1011.7
20260508043002 21 90 6.4 14.5 0.00 0.00 0.00 79 1011.8
20260508042904 21 76 8.0 14.5 0.00 0.00 0.00 79 1011.7
20260508042802 21 71 8.0 14.5 0.00 0.00 0.00 79 1011.7
20260508042702 21 58 8.0 14.5 0.00 0.00 0.00 79 1011.7
20260508042603 21 86 4.8 14.5 0.00 0.00 0.00 79 1011.7
20260508042503 21 82 3.2 14.5 0.00 0.00 0.00 79 1011.8
20260508042402 21 82 6.4 14.5 0.00 0.00 0.00 79 1011.7
20260508042306 21 92 8.0 14.5 0.00 0.00 0.00 79 1011.7
20260508042203 21 94 8.0 14.5 0.00 0.00 0.00 79 1011.6
20260508042104 21 75 6.4 14.5 0.00 0.00 0.00 79 1011.6
20260508042003 21 87 6.4 14.5 0.00 0.00 0.00 79 1011.6
20260508041901 21 79 9.7 14.5 0.00 0.00 0.00 79 1011.6
20260508041802 21 68 9.7 14.5 0.00 0.00 0.00 79 1011.6
20260508041703 21 47 8.0 16.1 0.00 0.00 0.00 79 1011.6
20260508041603 21 32 4.8 16.1 0.00 0.00 0.00 79 1011.6
20260508041504 21 41 4.8 16.1 0.00 0.00 0.00 79 1011.5
20260508041403 21 52 8.0 19.3 0.00 0.00 0.00 79 1011.5
20260508041303 21 59 8.0 19.3 0.00 0.00 0.00 79 1011.4
20260508041202 21 55 8.0 19.3 0.00 0.00 0.00 79 1011.3
20260508041102 21 56 8.0 19.3 0.00 0.00 0.00 79 1011.3
20260508041002 21 48 9.7 19.3 0.00 0.00 0.00 79 1011.3
20260508040903 21 38 9.7 19.3 0.00 0.00 0.00 79 1011.3
20260508040802 21 73 9.7 19.3 0.00 0.00 0.00 79 1011.2
20260508040702 21 54 9.7 19.3 0.00 0.00 0.00 79 1011.4
20260508040602 21 82 11.3 19.3 0.00 0.00 0.00 79 1011.4
20260508040504 21 68 11.3 19.3 0.00 0.00 0.00 79 1011.4
20260508040402 21 73 8.0 16.1 0.00 0.00 0.00 79 1011.4
20260508040302 21 76 9.7 17.7 0.00 0.00 0.00 79 1011.4
20260508040203 21 58 9.7 17.7 0.00 0.00 0.00 79 1011.4
20260508040003 21 52 9.7 17.7 0.00 0.00 0.00 79 1011.4
20260508035903 21 78 9.7 17.7 0.00 0.00 0.00 79 1011.5
20260508035803 21 45 9.7 19.3 0.00 0.00 0.00 79 1011.4
20260508035702 21 47 9.7 19.3 0.00 0.00 0.00 79 1011.4
20260508035603 21 83 9.7 19.3 0.00 0.00 0.00 79 1011.4
20260508035504 21 83 9.7 19.3 0.00 0.00 0.00 79 1011.4
20260508035402 21 61 9.7 19.3 0.00 0.00 0.00 79 1011.4
20260508035306 21 71 9.7 19.3 0.00 0.00 0.00 79 1011.4
20260508035204 21 63 11.3 19.3 0.00 0.00 0.00 79 1011.4
20260508035103 21 55 11.3 19.3 0.00 0.00 0.00 79 1011.5
20260508035004 21 61 12.9 19.3 0.00 0.00 0.00 78 1011.5
20260508034901 21 51 11.3 19.3 0.00 0.00 0.00 79 1011.5
20260508034803 21 52 8.0 16.1 0.00 0.00 0.00 78 1011.6
20260508034702 21 59 8.0 16.1 0.00 0.00 0.00 78 1011.7
20260508034604 21 56 9.7 16.1 0.00 0.00 0.00 78 1011.7
20260508034504 21 41 9.7 16.1 0.00 0.00 0.00 78 1011.7
20260508034403 21 39 9.7 16.1 0.00 0.00 0.00 78 1012.0
20260508034303 21 55 9.7 16.1 0.00 0.00 0.00 78 1012.0
20260508034202 21 48 9.7 14.5 0.00 0.00 0.00 79 1012.0
20260508034102 21 59 9.7 14.5 0.00 0.00 0.00 79 1012.1
20260508034004 21 69 9.7 14.5 0.00 0.00 0.00 79 1012.2
20260508033903 21 68 8.0 14.5 0.00 0.00 0.00 79 1012.2
20260508033803 21 86 8.0 14.5 0.00 0.00 0.00 79 1012.1
20260508033701 21 82 8.0 14.5 0.00 0.00 0.00 79 1012.0
20260508033601 21 52 8.0 14.5 0.00 0.00 0.00 79 1012.0
20260508033503 21 62 8.0 14.5 0.00 0.00 0.00 79 1012.0
20260508033402 21 54 8.0 14.5 0.00 0.00 0.00 79 1012.0
20260508033303 21 62 8.0 11.3 0.00 0.00 0.00 79 1012.1
20260508033203 21 48 6.4 9.7 0.00 0.00 0.00 79 1012.1
20260508033104 21 62 6.4 9.7 0.00 0.00 0.00 79 1012.0
20260508033002 21 48 4.8 9.7 0.00 0.00 0.00 79 1012.2
20260508032901 21 42 4.8 9.7 0.00 0.00 0.00 79 1012.0
20260508032757 21 35 4.8 11.3 0.00 0.00 0.00 79 1012.0
20260508032657 21 41 3.2 11.3 0.00 0.00 0.00 79 1012.1
20260508032556 21 34 4.8 11.3 0.00 0.00 0.00 79 1012.0
20260508032454 21 56 4.8 11.3 0.00 0.00 0.00 78 1012.1
20260508032351 21 68 6.4 11.3 0.00 0.00 0.00 78 1012.1
20260508032250 21 42 6.4 11.3 0.00 0.00 0.00 78 1012.1
20260508032149 21 39 6.4 17.7 0.00 0.00 0.00 78 1012.1
20260508032049 21 65 8.0 17.7 0.00 0.00 0.00 78 1012.1
20260508031947 21 52 6.4 17.7 0.00 0.00 0.00 78 1012.1
20260508031846 21 21 6.4 17.7 0.00 0.00 0.00 78 1012.1
20260508031743 21 63 6.4 17.7 0.00 0.00 0.00 78 1012.1
20260508031643 21 28 6.4 17.7 0.00 0.00 0.00 78 1012.1
20260508031540 21 52 8.0 17.7 0.00 0.00 0.00 78 1012.1
20260508031440 21 49 8.0 17.7 0.00 0.00 0.00 78 1012.1
20260508031337 21 27 11.3 17.7 0.00 0.00 0.00 78 1012.1
20260508031236 21 30 9.7 17.7 0.00 0.00 0.00 78 1012.2
20260508031135 21 23 8.0 16.1 0.00 0.00 0.00 78 1012.1
20260508031031 21 10 9.7 16.1 0.00 0.00 0.00 77 1012.2
20260508030933 21 52 9.7 16.1 0.00 0.00 0.00 77 1012.2
20260508030831 21 0 8.0 16.1 0.00 0.00 0.00 77 1012.3
20260508030731 21 14 9.7 16.1 0.00 0.00 0.00 77 1012.3
20260508030632 21 30 9.7 16.1 0.00 0.00 0.00 77 1012.3
20260508030531 21 32 6.4 14.5 0.00 0.00 0.00 77 1012.3
20260508030431 21 0 6.4 14.5 0.00 0.00 0.00 77 1012.3
20260508030332 21 11 8.0 14.5 0.00 0.00 0.00 77 1012.3
20260508030231 21 14 11.3 14.5 0.00 0.00 0.00 77 1012.3
20260508030133 21 14 6.4 11.3 0.00 0.00 0.00 77 1012.3
20260508030028 21 14 6.4 11.3 0.00 0.00 0.00 77 1012.3
20260508025904 21 14 6.4 11.3 0.00 0.00 0.00 77 1012.4
20260508025802 21 14 6.4 9.7 0.00 0.00 0.00 77 1012.4
20260508025703 21 13 4.8 9.7 0.00 0.00 0.00 76 1012.4
20260508025603 21 0 6.4 9.7 0.00 0.00 0.00 76 1012.4
20260508025505 21 358 4.8 9.7 0.00 0.00 0.00 76 1012.5
20260508025404 21 358 4.8 11.3 0.00 0.00 0.00 76 1012.5
20260508025305 21 358 4.8 14.5 0.00 0.00 0.00 76 1012.4
20260508025203 21 358 4.8 14.5 0.00 0.00 0.00 76 1012.4
20260508025102 21 358 4.8 14.5 0.00 0.00 0.00 76 1012.3
20260508025004 21 23 4.8 14.5 0.00 0.00 0.00 76 1012.3
20260508024902 21 27 4.8 14.5 0.00 0.00 0.00 76 1012.3
20260508024803 21 13 4.8 14.5 0.00 0.00 0.00 76 1012.2
20260508024703 21 14 4.8 14.5 0.00 0.00 0.00 76 1012.1
20260508024603 21 20 6.4 14.5 0.00 0.00 0.00 76 1012.0
20260508024503 21 25 9.7 14.5 0.00 0.00 0.00 76 1012.0
20260508024402 21 42 9.7 14.5 0.00 0.00 0.00 76 1011.9
20260508024304 22 8 8.0 14.5 0.00 0.00 0.00 76 1011.9
20260508024202 22 47 6.4 11.3 0.00 0.00 0.00 76 1012.0
20260508024102 22 17 8.0 11.3 0.00 0.00 0.00 76 1012.0
20260508024004 22 20 8.0 11.3 0.00 0.00 0.00 76 1012.0
20260508023903 22 21 6.4 11.3 0.00 0.00 0.00 76 1012.0
20260508023801 22 38 6.4 11.3 0.00 0.00 0.00 76 1012.1
20260508023704 22 23 6.4 11.3 0.00 0.00 0.00 76 1012.1
20260508023602 22 20 8.0 11.3 0.00 0.00 0.00 76 1012.1
20260508023502 22 28 8.0 11.3 0.00 0.00 0.00 76 1012.0
20260508023402 22 27 4.8 11.3 0.00 0.00 0.00 76 1012.0
20260508023302 22 28 6.4 11.3 0.00 0.00 0.00 76 1011.9
20260508023203 22 14 8.0 11.3 0.00 0.00 0.00 76 1011.8
20260508023103 22 18 8.0 11.3 0.00 0.00 0.00 76 1011.8
20260508023003 22 20 6.4 11.3 0.00 0.00 0.00 76 1012.0
20260508022902 22 25 6.4 9.7 0.00 0.00 0.00 76 1011.9
20260508022803 22 10 8.0 9.7 0.00 0.00 0.00 76 1012.0
20260508022702 22 0 8.0 9.7 0.00 0.00 0.00 76 1011.9
20260508022603 22 37 6.4 9.7 0.00 0.00 0.00 76 1012.0
20260508022503 22 21 6.4 8.0 0.00 0.00 0.00 76 1012.0
20260508022402 22 14 4.8 8.0 0.00 0.00 0.00 76 1012.0
20260508022307 22 8 3.2 8.0 0.00 0.00 0.00 76 1012.1
20260508022203 22 0 3.2 8.0 0.00 0.00 0.00 76 1012.1
20260508022103 22 0 4.8 8.0 0.00 0.00 0.00 76 1012.1
20260508022004 22 0 4.8 8.0 0.00 0.00 0.00 76 1012.2
20260508021903 22 0 4.8 9.7 0.00 0.00 0.00 76 1012.2
20260508021804 22 0 4.8 9.7 0.00 0.00 0.00 76 1012.2
20260508021703 22 0 4.8 9.7 0.00 0.00 0.00 76 1012.2
20260508021603 22 0 4.8 9.7 0.00 0.00 0.00 75 1012.1
20260508021502 22 358 4.8 9.7 0.00 0.00 0.00 76 1012.1
20260508021402 22 0 4.8 9.7 0.00 0.00 0.00 75 1012.0
20260508021303 22 0 6.4 9.7 0.00 0.00 0.00 75 1012.1
20260508021203 22 0 4.8 9.7 0.00 0.00 0.00 75 1012.1
20260508021103 22 355 6.4 9.7 0.00 0.00 0.00 75 1012.1
20260508021002 22 358 6.4 9.7 0.00 0.00 0.00 75 1012.1
20260508020904 22 358 6.4 9.7 0.00 0.00 0.00 75 1012.1
20260508020802 22 357 6.4 8.0 0.00 0.00 0.00 75 1012.0
20260508020701 22 0 4.8 8.0 0.00 0.00 0.00 75 1012.0
20260508020603 22 8 4.8 8.0 0.00 0.00 0.00 75 1011.9
20260508020504 22 3 4.8 8.0 0.00 0.00 0.00 75 1011.9
20260508020401 22 1 6.4 8.0 0.00 0.00 0.00 75 1011.9
20260508020303 22 3 4.8 8.0 0.00 0.00 0.00 75 1011.9
20260508020203 22 6 3.2 6.4 0.00 0.00 0.00 76 1012.0
20260508020002 22 354 3.2 8.0 0.00 0.00 0.00 75 1012.0
20260508015903 22 354 3.2 8.0 0.00 0.00 0.00 76 1012.0
20260508015803 22 354 3.2 8.0 0.00 0.00 0.00 76 1012.0
20260508015702 22 354 4.8 8.0 0.00 0.00 0.00 76 1011.9
20260508015603 22 353 4.8 8.0 0.00 0.00 0.00 76 1011.9
20260508015504 22 331 4.8 8.0 0.00 0.00 0.00 76 1011.8
20260508015403 22 4 4.8 8.0 0.00 0.00 0.00 76 1011.8
20260508015305 22 4 4.8 8.0 0.00 0.00 0.00 76 1011.8
20260508015203 22 4 4.8 8.0 0.00 0.00 0.00 76 1011.7
20260508015102 22 1 3.2 6.4 0.00 0.00 0.00 75 1011.7
20260508015004 22 0 3.2 6.4 0.00 0.00 0.00 75 1011.7
20260508014903 22 0 3.2 6.4 0.00 0.00 0.00 75 1011.7
20260508014802 22 0 3.2 6.4 0.00 0.00 0.00 75 1011.8
20260508014703 22 1 3.2 6.4 0.00 0.00 0.00 75 1011.8
20260508014604 22 3 4.8 6.4 0.00 0.00 0.00 75 1011.8
20260508014504 22 3 4.8 6.4 0.00 0.00 0.00 75 1011.8
20260508014402 22 3 4.8 6.4 0.00 0.00 0.00 75 1011.8
20260508014303 22 3 4.8 6.4 0.00 0.00 0.00 75 1011.7
20260508014203 22 3 4.8 6.4 0.00 0.00 0.00 75 1011.8
20260508014103 22 4 4.8 6.4 0.00 0.00 0.00 75 1011.7
20260508014003 22 4 3.2 6.4 0.00 0.00 0.00 75 1011.7
20260508013902 22 3 4.8 9.7 0.00 0.00 0.00 75 1011.7
20260508013802 22 4 4.8 9.7 0.00 0.00 0.00 75 1011.7
20260508013704 22 0 4.8 9.7 0.00 0.00 0.00 75 1011.8
20260508013602 22 0 4.8 9.7 0.00 0.00 0.00 74 1011.8
20260508013502 22 0 4.8 9.7 0.00 0.00 0.00 75 1011.8
20260508013402 22 0 3.2 9.7 0.00 0.00 0.00 74 1011.8
20260508013302 22 0 3.2 11.3 0.00 0.00 0.00 75 1011.8
20260508013203 22 0 3.2 11.3 0.00 0.00 0.00 74 1011.7
20260508013103 22 38 4.8 11.3 0.00 0.00 0.00 75 1011.7
20260508013004 22 54 6.4 11.3 0.00 0.00 0.00 75 1011.6
20260508012902 23 37 6.4 14.5 0.00 0.00 0.00 75 1011.6
20260508012803 23 25 4.8 14.5 0.00 0.00 0.00 75 1011.5
20260508012702 23 30 4.8 14.5 0.00 0.00 0.00 75 1011.5
20260508012603 23 39 4.8 14.5 0.00 0.00 0.00 75 1011.5
20260508012503 23 39 6.4 14.5 0.00 0.00 0.00 75 1011.6
20260508012404 23 0 8.0 14.5 0.00 0.00 0.00 75 1011.7
20260508012306 23 42 6.4 14.5 0.00 0.00 0.00 76 1011.6
20260508012202 23 55 8.0 14.5 0.00 0.00 0.00 76 1011.6
20260508012104 23 47 8.0 14.5 0.00 0.00 0.00 76 1011.5
20260508012003 23 25 8.0 14.5 0.00 0.00 0.00 76 1011.6
20260508011902 23 31 6.4 9.7 0.00 0.00 0.00 75 1011.7
20260508011804 23 34 4.8 8.0 0.00 0.00 0.00 75 1011.7
20260508011703 23 14 4.8 8.0 0.00 0.00 0.00 75 1011.7
20260508011602 23 14 4.8 9.7 0.00 0.00 0.00 75 1011.8
20260508011503 23 27 4.8 9.7 0.00 0.00 0.00 75 1011.8
20260508011403 23 20 6.4 11.3 0.00 0.00 0.00 75 1011.8
20260508011302 23 18 4.8 11.3 0.00 0.00 0.00 75 1011.8
20260508011202 23 17 4.8 11.3 0.00 0.00 0.00 75 1011.8
20260508011103 23 7 4.8 14.5 0.00 0.00 0.00 75 1011.8
20260508011002 23 24 4.8 14.5 0.00 0.00 0.00 75 1011.8
20260508010902 23 0 4.8 14.5 0.00 0.00 0.00 75 1011.8
20260508010803 23 348 6.4 14.5 0.00 0.00 0.00 74 1011.7
20260508010702 23 0 4.8 14.5 0.00 0.00 0.00 75 1011.7
20260508010602 23 38 4.8 17.7 0.00 0.00 0.00 75 1011.7
20260508010502 23 38 6.4 17.7 0.00 0.00 0.00 75 1011.7
20260508010402 23 24 6.4 17.7 0.00 0.00 0.00 75 1011.8
20260508010302 23 6 8.0 17.7 0.00 0.00 0.00 75 1011.8
20260508010202 23 0 8.0 17.7 0.00 0.00 0.00 75 1011.8
20260508010002 23 351 4.8 17.7 0.00 0.00 0.00 75 1011.7
20260508005902 23 0 6.4 17.7 0.00 0.00 0.00 75 1011.7
20260508005801 23 13 8.0 17.7 0.00 0.00 0.00 75 1011.7
20260508005702 23 13 8.0 17.7 0.00 0.00 0.00 75 1011.7
20260508005602 23 18 6.4 11.3 0.00 0.00 0.00 75 1011.6
20260508005503 23 11 4.8 11.3 0.00 0.00 0.00 75 1011.6
20260508005402 23 17 6.4 11.3 0.00 0.00 0.00 74 1011.5
20260508005305 23 10 8.0 11.3 0.00 0.00 0.00 74 1011.5
20260508005202 23 11 8.0 11.3 0.00 0.00 0.00 74 1011.5
20260508005104 23 17 6.4 11.3 0.00 0.00 0.00 74 1011.6
20260508005004 23 0 6.4 11.3 0.00 0.00 0.00 74 1011.5
20260508004903 23 0 8.0 11.3 0.00 0.00 0.00 74 1011.5
20260508004802 23 13 8.0 11.3 0.00 0.00 0.00 74 1011.6
20260508004701 23 3 8.0 11.3 0.00 0.00 0.00 74 1011.7
20260508004602 23 0 8.0 11.3 0.00 0.00 0.00 74 1011.6
20260508004502 23 13 6.4 11.3 0.00 0.00 0.00 75 1011.6
20260508004403 23 10 6.4 11.3 0.00 0.00 0.00 75 1011.6
20260508004303 23 30 4.8 11.3 0.00 0.00 0.00 75 1011.6
20260508004202 23 0 4.8 11.3 0.00 0.00 0.00 75 1011.6
20260508004103 23 354 4.8 11.3 0.00 0.00 0.00 75 1011.7
20260508004005 23 7 4.8 11.3 0.00 0.00 0.00 75 1011.7
20260508003903 23 24 4.8 11.3 0.00 0.00 0.00 75 1011.6
20260508003803 23 0 6.4 11.3 0.00 0.00 0.00 75 1011.6
20260508003703 23 0 6.4 11.3 0.00 0.00 0.00 75 1011.6
20260508003603 23 28 6.4 11.3 0.00 0.00 0.00 75 1011.6
20260508003503 23 10 6.4 11.3 0.00 0.00 0.00 75 1011.6
20260508003402 23 17 8.0 11.3 0.00 0.00 0.00 75 1011.6
20260508003304 23 17 9.7 11.3 0.00 0.00 0.00 75 1011.6
20260508003201 23 0 8.0 11.3 0.00 0.00 0.00 75 1011.7
20260508003103 23 353 6.4 11.3 0.00 0.00 0.00 75 1011.7
20260508003006 23 1 6.4 9.7 0.00 0.00 0.00 75 1011.7
20260508002904 23 343 4.8 14.5 0.00 0.00 0.00 75 1011.8
20260508002802 23 0 4.8 14.5 0.00 0.00 0.00 74 1011.8
20260508002703 23 4 4.8 14.5 0.00 0.00 0.00 74 1011.7
20260508002603 23 4 4.8 14.5 0.00 0.00 0.00 74 1011.7
20260508002504 23 4 4.8 14.5 0.00 0.00 0.00 74 1011.7
20260508002403 23 4 4.8 14.5 0.00 0.00 0.00 74 1011.6
20260508002306 23 17 6.4 14.5 0.00 0.00 0.00 74 1011.6
20260508002202 23 13 6.4 14.5 0.00 0.00 0.00 74 1011.7
20260508002102 23 10 4.8 14.5 0.00 0.00 0.00 74 1011.7
20260508002003 23 10 4.8 14.5 0.00 0.00 0.00 74 1011.7
20260508001901 23 345 6.4 9.7 0.00 0.00 0.00 74 1011.7
20260508001803 23 344 6.4 9.7 0.00 0.00 0.00 74 1011.7
20260508001704 23 0 6.4 11.3 0.00 0.00 0.00 74 1011.7
20260508001602 23 357 6.4 11.3 0.00 0.00 0.00 74 1011.6
20260508001504 23 330 6.4 14.5 0.00 0.00 0.00 74 1011.7
20260508001403 23 7 6.4 14.5 0.00 0.00 0.00 75 1011.7
20260508001303 23 354 6.4 14.5 0.00 0.00 0.00 75 1011.8
20260508001202 23 357 4.8 14.5 0.00 0.00 0.00 75 1011.8
20260508001102 23 329 4.8 14.5 0.00 0.00 0.00 75 1011.8
20260508001004 23 21 6.4 14.5 0.00 0.00 0.00 75 1011.8
20260508000902 23 13 8.0 14.5 0.00 0.00 0.00 74 1011.8
20260508000803 23 358 8.0 14.5 0.00 0.00 0.00 74 1011.8
20260508000702 23 10 9.7 14.5 0.00 0.00 0.00 74 1011.7
20260508000601 24 0 9.7 16.1 0.00 0.00 0.00 74 1011.8
20260508000503 24 24 4.8 16.1 0.00 0.00 0.00 74 1011.7
20260508000405 24 350 4.8 16.1 0.00 0.00 0.00 74 1011.7
20260508000305 24 1 6.4 17.7 0.00 0.00 0.00 74 1011.7
20260508000204 24 0 6.4 17.7 0.00 0.00 0.00 74 1011.8
20260508000003 24 0 6.4 17.7 0.00 0.00 0.00 74 1011.8
20260507235903 24 347 9.7 17.7 0.00 0.00 0.00 74 1011.9
20260507235802 24 344 9.7 17.7 0.00 0.00 0.00 74 1011.9
20260507235702 24 8 8.0 17.7 0.00 0.00 0.00 74 1011.9
20260507235604 24 334 8.0 17.7 0.00 0.00 0.00 74 1011.9
20260507235502 24 0 9.7 17.7 0.00 0.00 0.00 74 1011.9
20260507235402 24 0 11.3 17.7 0.00 0.00 0.00 74 1011.9
20260507235306 24 14 8.0 17.7 0.00 0.00 0.00 74 1011.9
20260507235203 24 340 4.8 16.1 0.00 0.00 0.00 74 1011.9
20260507235102 24 351 6.4 16.1 0.00 0.00 0.00 74 1011.9
20260507235001 24 358 6.4 16.1 0.00 0.00 0.00 74 1011.9
20260507234903 24 354 4.8 16.1 0.00 0.00 0.00 74 1011.9
20260507234802 24 10 8.0 16.1 0.00 0.00 0.00 74 1011.9
20260507234702 24 10 8.0 16.1 0.00 0.00 0.00 75 1011.9
20260507234602 24 358 6.4 14.5 0.00 0.00 0.00 75 1011.9
20260507234504 24 0 6.4 14.5 0.00 0.00 0.00 75 1011.8
20260507234401 24 358 8.0 14.5 0.00 0.00 0.00 74 1011.8
20260507234302 24 350 6.4 14.5 0.00 0.00 0.00 75 1011.8
20260507234203 24 11 3.2 16.1 0.00 0.00 0.00 75 1011.7
20260507234102 24 0 4.8 16.1 0.00 0.00 0.00 75 1011.7
20260507234002 24 0 4.8 16.1 0.00 0.00 0.00 75 1011.7
20260507233903 24 3 6.4 16.1 0.00 0.00 0.00 75 1011.7
20260507233802 24 4 6.4 16.1 0.00 0.00 0.00 74 1011.6
20260507233702 24 10 6.4 16.1 0.00 0.00 0.00 74 1011.7
20260507233603 24 6 8.0 16.1 0.00 0.00 0.00 74 1011.6
20260507233504 25 21 8.0 16.1 0.00 0.00 0.00 73 1011.6
20260507233402 25 24 9.7 16.1 0.00 0.00 0.00 73 1011.6
20260507233302 25 20 6.4 16.1 0.00 0.00 0.00 73 1011.5
20260507233203 25 7 3.2 14.5 0.00 0.00 0.00 73 1011.5
20260507233103 25 10 4.8 14.5 0.00 0.00 0.00 73 1011.5
20260507233002 25 10 6.4 16.1 0.00 0.00 0.00 73 1011.6
20260507232903 25 7 6.4 16.1 0.00 0.00 0.00 72 1011.5
20260507232804 25 13 6.4 16.1 0.00 0.00 0.00 72 1011.5
20260507232703 25 4 6.4 16.1 0.00 0.00 0.00 72 1011.5
20260507232602 25 6 9.7 16.1 0.00 0.00 0.00 72 1011.5
20260507232503 25 28 9.7 16.1 0.00 0.00 0.00 72 1011.6
20260507232402 25 32 9.7 16.1 0.00 0.00 0.00 72 1011.6
20260507232258 25 25 8.0 16.1 0.00 0.00 0.00 72 1011.6
20260507232159 25 28 8.0 16.1 0.00 0.00 0.00 72 1011.6
20260507232057 25 13 6.4 17.7 0.00 0.00 0.00 72 1011.6
20260507231955 25 23 6.4 17.7 0.00 0.00 0.00 72 1011.5